Wetterdaten: Dienstag, 14.02.2017
Datum Zeit Temp. A. Feuchte A. Luftdruck Regen Wind Richtung Richtung Sonnenschein ET UV Solar Taupunkt Windchill Windben Empfang
14.02.2017 00:00 -0,3 C 83 % 1028,7 hPa 0,0 l/m 18,3 km/h (3 Bft) O-NO 67 0 min 0,000 mm 0,0 UV-I 0 W/m -2,8 C -9,2 C 24,1 km/h (4 Bft) 98,11 %
14.02.2017 00:02 -0,3 C 83 % 1028,8 hPa 0,0 l/m 20,4 km/h (4 Bft) O-NO 59 0 min 0,000 mm 0,0 UV-I 0 W/m -2,8 C -10,2 C 29,0 km/h (5 Bft) 97,50 %
14.02.2017 00:04 -0,3 C 83 % 1028,8 hPa 0,0 l/m 18,6 km/h (3 Bft) NO 55 0 min 0,000 mm 0,0 UV-I 0 W/m -2,8 C -9,3 C 24,1 km/h (4 Bft) 97,78 %
14.02.2017 00:06 -0,3 C 83 % 1028,8 hPa 0,0 l/m 20,6 km/h (4 Bft) O-NO 62 0 min 0,000 mm 0,0 UV-I 0 W/m -2,8 C -10,3 C 30,6 km/h (5 Bft) 98,08 %
14.02.2017 00:09 -0,2 C 83 % 1028,7 hPa 0,0 l/m 20,4 km/h (4 Bft) NO 55 0 min 0,000 mm 0,0 UV-I 0 W/m -2,7 C -10,1 C 29,0 km/h (5 Bft) 95,59 %
14.02.2017 00:10 -0,2 C 83 % 1028,7 hPa 0,0 l/m 21,4 km/h (4 Bft) NO 54 0 min 0,000 mm 0,0 UV-I 0 W/m -2,7 C -10,5 C 29,0 km/h (5 Bft) 100,00 %
14.02.2017 00:12 -0,2 C 83 % 1028,6 hPa 0,0 l/m 19,4 km/h (3 Bft) O-NO 69 0 min 0,000 mm 0,0 UV-I 0 W/m -2,7 C -9,6 C 29,0 km/h (5 Bft) 94,34 %
14.02.2017 00:14 -0,2 C 83 % 1028,6 hPa 0,0 l/m 21,6 km/h (4 Bft) NO 55 0 min 0,000 mm 0,0 UV-I 0 W/m -2,7 C -10,6 C 33,8 km/h (5 Bft) 96,23 %
14.02.2017 00:16 -0,2 C 82 % 1028,6 hPa 0,0 l/m 22,8 km/h (4 Bft) O-NO 63 0 min 0,000 mm 0,0 UV-I 0 W/m -2,9 C -11,1 C 33,8 km/h (5 Bft) 97,56 %
14.02.2017 00:18 -0,1 C 82 % 1028,6 hPa 0,0 l/m 19,7 km/h (3 Bft) NO 53 0 min 0,000 mm 0,0 UV-I 0 W/m -2,8 C -9,6 C 25,7 km/h (4 Bft) 100,00 %
14.02.2017 00:20 -0,1 C 82 % 1028,6 hPa 0,0 l/m 20,3 km/h (4 Bft) O-NO 69 0 min 0,000 mm 0,0 UV-I 0 W/m -2,8 C -9,9 C 29,0 km/h (5 Bft) 97,73 %
14.02.2017 00:22 -0,1 C 82 % 1028,6 hPa 0,0 l/m 22,6 km/h (4 Bft) NO 54 0 min 0,000 mm 0,0 UV-I 0 W/m -2,8 C -10,9 C 29,0 km/h (5 Bft) 100,00 %
14.02.2017 00:24 -0,1 C 82 % 1028,6 hPa 0,0 l/m 18,7 km/h (3 Bft) O-NO 74 0 min 0,000 mm 0,0 UV-I 0 W/m -2,8 C -9,1 C 25,7 km/h (4 Bft) 100,00 %
14.02.2017 00:26 -0,1 C 82 % 1028,6 hPa 0,0 l/m 18,6 km/h (3 Bft) O-NO 76 0 min 0,000 mm 0,0 UV-I 0 W/m -2,8 C -9,1 C 25,7 km/h (4 Bft) 97,56 %
14.02.2017 00:28 -0,1 C 82 % 1028,6 hPa 0,0 l/m 22,0 km/h (4 Bft) NO 56 0 min 0,000 mm 0,0 UV-I 0 W/m -2,8 C -10,7 C 29,0 km/h (5 Bft) 98,11 %
14.02.2017 00:30 -0,1 C 82 % 1028,6 hPa 0,0 l/m 19,9 km/h (4 Bft) NO 49 0 min 0,000 mm 0,0 UV-I 0 W/m -2,8 C -9,7 C 24,1 km/h (4 Bft) 100,00 %
14.02.2017 00:32 -0,1 C 82 % 1028,6 hPa 0,0 l/m 18,9 km/h (3 Bft) O-NO 59 0 min 0,000 mm 0,0 UV-I 0 W/m -2,8 C -9,2 C 27,4 km/h (4 Bft) 97,87 %
14.02.2017 00:34 -0,2 C 82 % 1028,6 hPa 0,0 l/m 18,7 km/h (3 Bft) O-NO 57 0 min 0,000 mm 0,0 UV-I 0 W/m -2,9 C -9,3 C 25,7 km/h (4 Bft) 100,00 %
14.02.2017 00:36 -0,2 C 82 % 1028,6 hPa 0,0 l/m 19,6 km/h (3 Bft) O-NO 73 0 min 0,000 mm 0,0 UV-I 0 W/m -2,9 C -9,7 C 25,7 km/h (4 Bft) 97,56 %
14.02.2017 00:38 -0,2 C 82 % 1028,6 hPa 0,0 l/m 19,7 km/h (3 Bft) NO 45 0 min 0,000 mm 0,0 UV-I 0 W/m -2,9 C -9,7 C 37,0 km/h (5 Bft) 98,04 %
14.02.2017 00:40 -0,2 C 82 % 1028,6 hPa 0,0 l/m 19,2 km/h (3 Bft) O-NO 63 0 min 0,000 mm 0,0 UV-I 0 W/m -2,9 C -9,5 C 24,1 km/h (4 Bft) 100,00 %
14.02.2017 00:42 -0,2 C 82 % 1028,5 hPa 0,0 l/m 23,2 km/h (4 Bft) NO 46 0 min 0,000 mm 0,0 UV-I 0 W/m -2,9 C -11,3 C 29,0 km/h (5 Bft) 92,86 %
14.02.2017 00:44 -0,2 C 82 % 1028,5 hPa 0,0 l/m 22,0 km/h (4 Bft) NO 55 0 min 0,000 mm 0,0 UV-I 0 W/m -2,9 C -10,8 C 30,6 km/h (5 Bft) 97,22 %
14.02.2017 00:46 -0,2 C 83 % 1028,5 hPa 0,0 l/m 21,2 km/h (4 Bft) NO 48 0 min 0,000 mm 0,0 UV-I 0 W/m -2,7 C -10,4 C 27,4 km/h (4 Bft) 96,49 %
14.02.2017 00:48 -0,2 C 83 % 1028,5 hPa 0,0 l/m 20,5 km/h (4 Bft) O-NO 59 0 min 0,000 mm 0,0 UV-I 0 W/m -2,7 C -10,1 C 27,4 km/h (4 Bft) 97,44 %
14.02.2017 00:50 -0,3 C 83 % 1028,5 hPa 0,0 l/m 19,1 km/h (3 Bft) O-NO 67 0 min 0,000 mm 0,0 UV-I 0 W/m -2,8 C -9,6 C 25,7 km/h (4 Bft) 96,23 %
14.02.2017 00:52 -0,3 C 83 % 1028,5 hPa 0,0 l/m 22,6 km/h (4 Bft) O-NO 78 0 min 0,000 mm 0,0 UV-I 0 W/m -2,8 C -11,2 C 29,0 km/h (5 Bft) 95,45 %
14.02.2017 00:54 -0,3 C 83 % 1028,4 hPa 0,0 l/m 21,5 km/h (4 Bft) O-NO 71 0 min 0,000 mm 0,0 UV-I 0 W/m -2,8 C -10,7 C 30,6 km/h (5 Bft) 94,34 %
14.02.2017 00:56 -0,3 C 83 % 1028,5 hPa 0,0 l/m 21,7 km/h (4 Bft) O-NO 59 0 min 0,000 mm 0,0 UV-I 0 W/m -2,8 C -10,8 C 25,7 km/h (4 Bft) 97,56 %
14.02.2017 00:58 -0,3 C 83 % 1028,5 hPa 0,0 l/m 19,6 km/h (3 Bft) O 80 0 min 0,000 mm 0,0 UV-I 0 W/m -2,8 C -9,8 C 25,7 km/h (4 Bft) 97,73 %
14.02.2017 01:00 -0,3 C 83 % 1028,5 hPa 0,0 l/m 20,2 km/h (4 Bft) O-NO 73 0 min 0,025 mm 0,0 UV-I 0 W/m -2,8 C -10,1 C 27,4 km/h (4 Bft) 97,87 %
14.02.2017 01:02 -0,3 C 83 % 1028,6 hPa 0,0 l/m 23,1 km/h (4 Bft) O-NO 73 0 min 0,000 mm 0,0 UV-I 0 W/m -2,8 C -11,4 C 30,6 km/h (5 Bft) 96,23 %
14.02.2017 01:04 -0,4 C 83 % 1028,6 hPa 0,0 l/m 19,6 km/h (3 Bft) O-NO 77 0 min 0,000 mm 0,0 UV-I 0 W/m -2,9 C -10,0 C 29,0 km/h (5 Bft) 95,45 %
14.02.2017 01:06 -0,4 C 83 % 1028,6 hPa 0,0 l/m 22,3 km/h (4 Bft) O-NO 70 0 min 0,000 mm 0,0 UV-I 0 W/m -2,9 C -11,2 C 30,6 km/h (5 Bft) 97,56 %
14.02.2017 01:08 -0,4 C 83 % 1028,6 hPa 0,0 l/m 21,6 km/h (4 Bft) O-NO 59 0 min 0,000 mm 0,0 UV-I 0 W/m -2,9 C -10,9 C 33,8 km/h (5 Bft) 95,83 %
14.02.2017 01:10 -0,4 C 83 % 1028,5 hPa 0,0 l/m 23,2 km/h (4 Bft) O-NO 57 0 min 0,000 mm 0,0 UV-I 0 W/m -2,9 C -11,6 C 32,2 km/h (5 Bft) 94,00 %
14.02.2017 01:12 -0,4 C 83 % 1028,6 hPa 0,0 l/m 18,9 km/h (3 Bft) O 84 0 min 0,000 mm 0,0 UV-I 0 W/m -2,9 C -9,6 C 29,0 km/h (5 Bft) 92,68 %
14.02.2017 01:14 -0,4 C 83 % 1028,7 hPa 0,0 l/m 20,1 km/h (4 Bft) O-NO 76 0 min 0,000 mm 0,0 UV-I 0 W/m -2,9 C -10,2 C 29,0 km/h (5 Bft) 98,00 %
14.02.2017 01:16 -0,4 C 83 % 1028,8 hPa 0,0 l/m 16,5 km/h (3 Bft) O-NO 59 0 min 0,000 mm 0,0 UV-I 0 W/m -2,9 C -8,3 C 20,9 km/h (4 Bft) 97,83 %
14.02.2017 01:18 -0,4 C 83 % 1028,8 hPa 0,0 l/m 17,0 km/h (3 Bft) NO 39 0 min 0,000 mm 0,0 UV-I 0 W/m -2,9 C -8,6 C 25,7 km/h (4 Bft) 98,21 %
14.02.2017 01:20 -0,5 C 84 % 1028,8 hPa 0,0 l/m 17,0 km/h (3 Bft) O-NO 71 0 min 0,000 mm 0,0 UV-I 0 W/m -2,9 C -8,7 C 20,9 km/h (4 Bft) 97,37 %
14.02.2017 01:22 -0,5 C 84 % 1028,8 hPa 0,0 l/m 16,0 km/h (3 Bft) NO 56 0 min 0,000 mm 0,0 UV-I 0 W/m -2,9 C -8,2 C 20,9 km/h (4 Bft) 96,00 %
14.02.2017 01:24 -0,6 C 84 % 1028,8 hPa 0,0 l/m 16,9 km/h (3 Bft) NO 55 0 min 0,000 mm 0,0 UV-I 0 W/m -3,0 C -8,8 C 25,7 km/h (4 Bft) 100,00 %
14.02.2017 01:26 -0,6 C 84 % 1028,8 hPa 0,0 l/m 19,9 km/h (4 Bft) O-NO 59 0 min 0,000 mm 0,0 UV-I 0 W/m -3,0 C -10,4 C 27,4 km/h (4 Bft) 100,00 %
14.02.2017 01:28 -0,6 C 84 % 1028,9 hPa 0,0 l/m 16,3 km/h (3 Bft) NO 53 0 min 0,000 mm 0,0 UV-I 0 W/m -3,0 C -8,5 C 24,1 km/h (4 Bft) 100,00 %
14.02.2017 01:30 -0,6 C 84 % 1028,9 hPa 0,0 l/m 21,0 km/h (4 Bft) O-NO 59 0 min 0,000 mm 0,0 UV-I 0 W/m -3,0 C -10,9 C 25,7 km/h (4 Bft) 98,18 %
14.02.2017 01:32 -0,6 C 84 % 1028,9 hPa 0,0 l/m 16,3 km/h (3 Bft) O-NO 57 0 min 0,000 mm 0,0 UV-I 0 W/m -3,0 C -8,5 C 20,9 km/h (4 Bft) 97,44 %
14.02.2017 01:34 -0,6 C 84 % 1029,0 hPa 0,0 l/m 18,6 km/h (3 Bft) O-NO 59 0 min 0,000 mm 0,0 UV-I 0 W/m -3,0 C -9,7 C 24,1 km/h (4 Bft) 100,00 %
14.02.2017 01:36 -0,6 C 84 % 1028,9 hPa 0,0 l/m 17,3 km/h (3 Bft) NO 56 0 min 0,000 mm 0,0 UV-I 0 W/m -3,0 C -9,0 C 22,5 km/h (4 Bft) 98,00 %
14.02.2017 01:38 -0,7 C 84 % 1028,9 hPa 0,0 l/m 18,9 km/h (3 Bft) O-NO 65 0 min 0,000 mm 0,0 UV-I 0 W/m -3,1 C -10,0 C 25,7 km/h (4 Bft) 97,73 %
14.02.2017 01:40 -0,7 C 84 % 1029,0 hPa 0,0 l/m 19,1 km/h (3 Bft) O-NO 61 0 min 0,000 mm 0,0 UV-I 0 W/m -3,1 C -10,1 C 29,0 km/h (5 Bft) 100,00 %
14.02.2017 01:42 -0,7 C 84 % 1028,9 hPa 0,0 l/m 16,7 km/h (3 Bft) O-NO 59 0 min 0,000 mm 0,0 UV-I 0 W/m -3,1 C -8,8 C 24,1 km/h (4 Bft) 97,73 %
14.02.2017 01:44 -0,7 C 84 % 1028,9 hPa 0,0 l/m 18,8 km/h (3 Bft) O-NO 71 0 min 0,000 mm 0,0 UV-I 0 W/m -3,1 C -9,9 C 24,1 km/h (4 Bft) 100,00 %
14.02.2017 01:46 -0,7 C 85 % 1028,9 hPa 0,0 l/m 21,9 km/h (4 Bft) O-NO 74 0 min 0,000 mm 0,0 UV-I 0 W/m -2,9 C -11,4 C 29,0 km/h (5 Bft) 98,11 %
14.02.2017 01:48 -0,7 C 84 % 1028,9 hPa 0,0 l/m 18,9 km/h (3 Bft) NO 44 0 min 0,000 mm 0,0 UV-I 0 W/m -3,1 C -10,0 C 30,6 km/h (5 Bft) 94,74 %
14.02.2017 01:50 -0,7 C 84 % 1028,9 hPa 0,0 l/m 18,4 km/h (3 Bft) O-NO 69 0 min 0,000 mm 0,0 UV-I 0 W/m -3,1 C -9,7 C 27,4 km/h (4 Bft) 97,87 %
14.02.2017 01:52 -0,7 C 84 % 1028,9 hPa 0,0 l/m 20,4 km/h (4 Bft) O-NO 59 0 min 0,000 mm 0,0 UV-I 0 W/m -3,1 C -10,7 C 25,7 km/h (4 Bft) 96,23 %
14.02.2017 01:54 -0,7 C 84 % 1029,0 hPa 0,0 l/m 14,4 km/h (3 Bft) NO 55 0 min 0,000 mm 0,0 UV-I 0 W/m -3,1 C -7,5 C 19,3 km/h (3 Bft) 95,12 %
14.02.2017 01:56 -0,7 C 84 % 1029,0 hPa 0,0 l/m 15,9 km/h (3 Bft) O-NO 73 0 min 0,000 mm 0,0 UV-I 0 W/m -3,1 C -8,4 C 22,5 km/h (4 Bft) 96,00 %
14.02.2017 01:58 -0,7 C 84 % 1028,9 hPa 0,0 l/m 17,3 km/h (3 Bft) NO 53 0 min 0,000 mm 0,0 UV-I 0 W/m -3,1 C -9,2 C 25,7 km/h (4 Bft) 95,12 %
14.02.2017 02:00 -0,7 C 84 % 1028,9 hPa 0,0 l/m 17,3 km/h (3 Bft) NO 50 0 min 0,026 mm 0,0 UV-I 0 W/m -3,1 C -9,2 C 24,1 km/h (4 Bft) 98,00 %
14.02.2017 02:02 -0,7 C 84 % 1028,9 hPa 0,0 l/m 14,9 km/h (3 Bft) O-NO 60 0 min 0,000 mm 0,0 UV-I 0 W/m -3,1 C -7,8 C 19,3 km/h (3 Bft) 96,15 %
14.02.2017 02:04 -0,7 C 84 % 1029,0 hPa 0,0 l/m 13,6 km/h (3 Bft) NO 50 0 min 0,000 mm 0,0 UV-I 0 W/m -3,1 C -6,9 C 17,7 km/h (3 Bft) 95,74 %
14.02.2017 02:06 -0,8 C 84 % 1028,9 hPa 0,0 l/m 13,7 km/h (3 Bft) NO 44 0 min 0,000 mm 0,0 UV-I 0 W/m -3,2 C -7,1 C 17,7 km/h (3 Bft) 98,00 %
14.02.2017 02:08 -0,8 C 85 % 1028,9 hPa 0,0 l/m 15,2 km/h (3 Bft) NO 55 0 min 0,000 mm 0,0 UV-I 0 W/m -3,0 C -8,1 C 19,3 km/h (3 Bft) 95,24 %
14.02.2017 02:10 -0,8 C 85 % 1029,0 hPa 0,0 l/m 13,1 km/h (3 Bft) NO 44 0 min 0,000 mm 0,0 UV-I 0 W/m -3,0 C -6,7 C 17,7 km/h (3 Bft) 95,12 %
14.02.2017 02:12 -0,9 C 85 % 1029,0 hPa 0,0 l/m 14,7 km/h (3 Bft) O-NO 65 0 min 0,000 mm 0,0 UV-I 0 W/m -3,1 C -7,9 C 19,3 km/h (3 Bft) 98,00 %
14.02.2017 02:14 -0,9 C 85 % 1029,0 hPa 0,0 l/m 12,3 km/h (3 Bft) O-NO 71 0 min 0,000 mm 0,0 UV-I 0 W/m -3,1 C -6,3 C 17,7 km/h (3 Bft) 95,74 %
14.02.2017 02:16 -0,9 C 85 % 1029,0 hPa 0,0 l/m 13,8 km/h (3 Bft) O-NO 61 0 min 0,000 mm 0,0 UV-I 0 W/m -3,1 C -7,3 C 17,7 km/h (3 Bft) 98,00 %
14.02.2017 02:18 -0,9 C 85 % 1029,0 hPa 0,0 l/m 14,0 km/h (3 Bft) O-NO 63 0 min 0,000 mm 0,0 UV-I 0 W/m -3,1 C -7,4 C 20,9 km/h (4 Bft) 97,87 %
14.02.2017 02:20 -1,0 C 85 % 1029,0 hPa 0,0 l/m 16,0 km/h (3 Bft) O-NO 65 0 min 0,000 mm 0,0 UV-I 0 W/m -3,2 C -8,8 C 20,9 km/h (4 Bft) 97,56 %
14.02.2017 02:22 -1,0 C 85 % 1029,0 hPa 0,0 l/m 17,1 km/h (3 Bft) NO 54 0 min 0,000 mm 0,0 UV-I 0 W/m -3,2 C -9,4 C 20,9 km/h (4 Bft) 96,43 %
14.02.2017 02:24 -1,0 C 85 % 1029,0 hPa 0,0 l/m 14,6 km/h (3 Bft) O-NO 72 0 min 0,000 mm 0,0 UV-I 0 W/m -3,2 C -7,9 C 20,9 km/h (4 Bft) 100,00 %
14.02.2017 02:26 -1,0 C 86 % 1029,0 hPa 0,0 l/m 17,2 km/h (3 Bft) O 84 0 min 0,000 mm 0,0 UV-I 0 W/m -3,0 C -9,5 C 25,7 km/h (4 Bft) 100,00 %
14.02.2017 02:28 -1,0 C 86 % 1029,0 hPa 0,0 l/m 13,8 km/h (3 Bft) O-NO 69 0 min 0,000 mm 0,0 UV-I 0 W/m -3,0 C -7,4 C 17,7 km/h (3 Bft) 97,73 %
14.02.2017 02:30 -1,1 C 85 % 1028,9 hPa 0,0 l/m 10,0 km/h (2 Bft) NO 51 0 min 0,000 mm 0,0 UV-I 0 W/m -3,3 C -4,7 C 17,7 km/h (3 Bft) 100,00 %
14.02.2017 02:32 -1,1 C 86 % 1029,0 hPa 0,0 l/m 15,3 km/h (3 Bft) NO 46 0 min 0,000 mm 0,0 UV-I 0 W/m -3,1 C -8,5 C 20,9 km/h (4 Bft) 100,00 %
14.02.2017 02:34 -1,1 C 86 % 1028,9 hPa 0,0 l/m 11,2 km/h (2 Bft) NO 55 0 min 0,000 mm 0,0 UV-I 0 W/m -3,1 C -5,7 C 17,7 km/h (3 Bft) 100,00 %
14.02.2017 02:36 -1,1 C 86 % 1029,0 hPa 0,0 l/m 12,7 km/h (3 Bft) O-NO 66 0 min 0,000 mm 0,0 UV-I 0 W/m -3,1 C -6,8 C 17,7 km/h (3 Bft) 100,00 %
14.02.2017 02:38 -1,2 C 86 % 1029,0 hPa 0,0 l/m 11,2 km/h (2 Bft) O-NO 64 0 min 0,000 mm 0,0 UV-I 0 W/m -3,2 C -5,8 C 17,7 km/h (3 Bft) 100,00 %
14.02.2017 02:40 -1,2 C 86 % 1029,0 hPa 0,0 l/m 10,2 km/h (2 Bft) O-NO 65 0 min 0,000 mm 0,0 UV-I 0 W/m -3,2 C -4,9 C 14,5 km/h (3 Bft) 98,11 %
14.02.2017 02:42 -1,2 C 86 % 1029,0 hPa 0,0 l/m 10,7 km/h (2 Bft) NO 53 0 min 0,000 mm 0,0 UV-I 0 W/m -3,2 C -5,4 C 16,1 km/h (3 Bft) 100,00 %
14.02.2017 02:44 -1,2 C 86 % 1029,0 hPa 0,0 l/m 13,5 km/h (3 Bft) NO 49 0 min 0,000 mm 0,0 UV-I 0 W/m -3,2 C -7,5 C 19,3 km/h (3 Bft) 100,00 %
14.02.2017 02:46 -1,3 C 86 % 1029,0 hPa 0,0 l/m 11,8 km/h (2 Bft) O-NO 77 0 min 0,000 mm 0,0 UV-I 0 W/m -3,3 C -6,3 C 16,1 km/h (3 Bft) 100,00 %
14.02.2017 02:48 -1,3 C 86 % 1029,0 hPa 0,0 l/m 15,5 km/h (3 Bft) NO 36 0 min 0,000 mm 0,0 UV-I 0 W/m -3,3 C -8,9 C 19,3 km/h (3 Bft) 97,44 %
14.02.2017 02:50 -1,2 C 86 % 1029,0 hPa 0,0 l/m 13,6 km/h (3 Bft) O-NO 63 0 min 0,000 mm 0,0 UV-I 0 W/m -3,2 C -7,5 C 17,7 km/h (3 Bft) 100,00 %
14.02.2017 02:52 -1,2 C 86 % 1029,0 hPa 0,0 l/m 13,6 km/h (3 Bft) O-NO 74 0 min 0,000 mm 0,0 UV-I 0 W/m -3,2 C -7,5 C 19,3 km/h (3 Bft) 96,61 %
14.02.2017 02:54 -1,2 C 86 % 1029,0 hPa 0,0 l/m 14,9 km/h (3 Bft) NO 53 0 min 0,000 mm 0,0 UV-I 0 W/m -3,2 C -8,4 C 22,5 km/h (4 Bft) 92,68 %
14.02.2017 02:56 -1,2 C 86 % 1029,0 hPa 0,0 l/m 15,7 km/h (3 Bft) O-NO 69 0 min 0,000 mm 0,0 UV-I 0 W/m -3,2 C -8,9 C 20,9 km/h (4 Bft) 98,11 %
14.02.2017 02:58 -1,2 C 86 % 1029,0 hPa 0,0 l/m 15,1 km/h (3 Bft) NO 50 0 min 0,000 mm 0,0 UV-I 0 W/m -3,2 C -8,5 C 25,7 km/h (4 Bft) 95,12 %
14.02.2017 03:00 -1,1 C 86 % 1029,0 hPa 0,0 l/m 15,6 km/h (3 Bft) O-NO 68 0 min 0,025 mm 0,0 UV-I 0 W/m -3,1 C -8,7 C 19,3 km/h (3 Bft) 98,00 %
14.02.2017 03:02 -1,2 C 86 % 1029,1 hPa 0,0 l/m 16,6 km/h (3 Bft) O-NO 59 0 min 0,000 mm 0,0 UV-I 0 W/m -3,2 C -9,4 C 25,7 km/h (4 Bft) 91,49 %
14.02.2017 03:04 -1,2 C 86 % 1029,0 hPa 0,0 l/m 15,9 km/h (3 Bft) O-NO 63 0 min 0,000 mm 0,0 UV-I 0 W/m -3,2 C -9,0 C 22,5 km/h (4 Bft) 95,45 %
14.02.2017 03:06 -1,2 C 86 % 1028,9 hPa 0,0 l/m 14,2 km/h (3 Bft) O-NO 61 0 min 0,000 mm 0,0 UV-I 0 W/m -3,2 C -7,9 C 20,9 km/h (4 Bft) 96,00 %
14.02.2017 03:08 -1,2 C 86 % 1028,9 hPa 0,0 l/m 15,7 km/h (3 Bft) O-NO 63 0 min 0,000 mm 0,0 UV-I 0 W/m -3,2 C -8,9 C 22,5 km/h (4 Bft) 92,11 %
14.02.2017 03:10 -1,2 C 86 % 1028,9 hPa 0,0 l/m 13,4 km/h (3 Bft) O-NO 59 0 min 0,000 mm 0,0 UV-I 0 W/m -3,2 C -7,4 C 20,9 km/h (4 Bft) 96,43 %
14.02.2017 03:12 -1,1 C 86 % 1028,9 hPa 0,0 l/m 16,2 km/h (3 Bft) O-NO 70 0 min 0,000 mm 0,0 UV-I 0 W/m -3,1 C -9,0 C 19,3 km/h (3 Bft) 97,37 %
14.02.2017 03:14 -1,2 C 86 % 1028,9 hPa 0,0 l/m 15,3 km/h (3 Bft) O-NO 63 0 min 0,000 mm 0,0 UV-I 0 W/m -3,2 C -8,6 C 20,9 km/h (4 Bft) 97,87 %
14.02.2017 03:16 -1,2 C 86 % 1029,0 hPa 0,0 l/m 12,3 km/h (3 Bft) O-NO 64 0 min 0,000 mm 0,0 UV-I 0 W/m -3,2 C -6,6 C 17,7 km/h (3 Bft) 98,00 %
14.02.2017 03:18 -1,2 C 86 % 1029,1 hPa 0,0 l/m 14,0 km/h (3 Bft) O-NO 64 0 min 0,000 mm 0,0 UV-I 0 W/m -3,2 C -7,8 C 19,3 km/h (3 Bft) 96,23 %
14.02.2017 03:20 -1,2 C 86 % 1029,0 hPa 0,0 l/m 14,6 km/h (3 Bft) NO 44 0 min 0,000 mm 0,0 UV-I 0 W/m -3,2 C -8,2 C 20,9 km/h (4 Bft) 97,37 %
14.02.2017 03:22 -1,2 C 86 % 1029,0 hPa 0,0 l/m 12,7 km/h (3 Bft) O-NO 68 0 min 0,000 mm 0,0 UV-I 0 W/m -3,2 C -6,9 C 17,7 km/h (3 Bft) 98,21 %
14.02.2017 03:24 -1,3 C 86 % 1029,0 hPa 0,0 l/m 13,9 km/h (3 Bft) O-NO 59 0 min 0,000 mm 0,0 UV-I 0 W/m -3,3 C -7,8 C 20,9 km/h (4 Bft) 97,56 %
14.02.2017 03:26 -1,3 C 86 % 1029,1 hPa 0,0 l/m 12,2 km/h (2 Bft) NO 55 0 min 0,000 mm 0,0 UV-I 0 W/m -3,3 C -6,6 C 16,1 km/h (3 Bft) 98,11 %
14.02.2017 03:28 -1,2 C 86 % 1029,0 hPa 0,0 l/m 14,0 km/h (3 Bft) NO 50 0 min 0,000 mm 0,0 UV-I 0 W/m -3,2 C -7,8 C 17,7 km/h (3 Bft) 100,00 %
14.02.2017 03:30 -1,2 C 86 % 1029,0 hPa 0,0 l/m 12,7 km/h (3 Bft) NO 51 0 min 0,000 mm 0,0 UV-I 0 W/m -3,2 C -6,9 C 17,7 km/h (3 Bft) 100,00 %
14.02.2017 03:32 -1,3 C 86 % 1028,9 hPa 0,0 l/m 12,5 km/h (3 Bft) O-NO 58 0 min 0,000 mm 0,0 UV-I 0 W/m -3,3 C -6,9 C 17,7 km/h (3 Bft) 100,00 %
14.02.2017 03:34 -1,3 C 86 % 1029,0 hPa 0,0 l/m 13,1 km/h (3 Bft) O-NO 64 0 min 0,000 mm 0,0 UV-I 0 W/m -3,3 C -7,3 C 17,7 km/h (3 Bft) 100,00 %
14.02.2017 03:36 -1,3 C 86 % 1029,0 hPa 0,0 l/m 12,4 km/h (3 Bft) NO 51 0 min 0,000 mm 0,0 UV-I 0 W/m -3,3 C -6,8 C 17,7 km/h (3 Bft) 100,00 %
14.02.2017 03:38 -1,3 C 86 % 1029,0 hPa 0,0 l/m 14,0 km/h (3 Bft) O-NO 69 0 min 0,000 mm 0,0 UV-I 0 W/m -3,3 C -7,9 C 19,3 km/h (3 Bft) 100,00 %
14.02.2017 03:40 -1,3 C 86 % 1029,1 hPa 0,0 l/m 13,2 km/h (3 Bft) NO 47 0 min 0,000 mm 0,0 UV-I 0 W/m -3,3 C -7,4 C 17,7 km/h (3 Bft) 100,00 %
14.02.2017 03:42 -1,3 C 86 % 1029,0 hPa 0,0 l/m 13,7 km/h (3 Bft) O-NO 71 0 min 0,000 mm 0,0 UV-I 0 W/m -3,3 C -7,7 C 19,3 km/h (3 Bft) 100,00 %
14.02.2017 03:44 -1,3 C 86 % 1028,9 hPa 0,0 l/m 12,7 km/h (3 Bft) NO 49 0 min 0,000 mm 0,0 UV-I 0 W/m -3,3 C -7,0 C 19,3 km/h (3 Bft) 100,00 %
14.02.2017 03:46 -1,3 C 86 % 1028,9 hPa 0,0 l/m 13,5 km/h (3 Bft) NO 50 0 min 0,000 mm 0,0 UV-I 0 W/m -3,3 C -7,6 C 19,3 km/h (3 Bft) 100,00 %
14.02.2017 03:48 -1,3 C 86 % 1028,9 hPa 0,0 l/m 12,2 km/h (2 Bft) NO 51 0 min 0,000 mm 0,0 UV-I 0 W/m -3,3 C -6,6 C 17,7 km/h (3 Bft) 98,11 %
14.02.2017 03:50 -1,4 C 86 % 1028,9 hPa 0,0 l/m 9,9 km/h (2 Bft) O-NO 65 0 min 0,000 mm 0,0 UV-I 0 W/m -3,4 C -4,9 C 17,7 km/h (3 Bft) 97,37 %
14.02.2017 03:52 -1,4 C 87 % 1029,1 hPa 0,0 l/m 12,8 km/h (3 Bft) NO 50 0 min 0,000 mm 0,0 UV-I 0 W/m -3,3 C -7,2 C 17,7 km/h (3 Bft) 96,43 %
14.02.2017 03:54 -1,4 C 86 % 1029,0 hPa 0,0 l/m 12,8 km/h (3 Bft) NO 42 0 min 0,000 mm 0,0 UV-I 0 W/m -3,4 C -7,2 C 19,3 km/h (3 Bft) 95,12 %
14.02.2017 03:56 -1,4 C 87 % 1029,1 hPa 0,0 l/m 11,4 km/h (2 Bft) O 89 0 min 0,000 mm 0,0 UV-I 0 W/m -3,3 C -6,2 C 19,3 km/h (3 Bft) 97,56 %
14.02.2017 03:58 -1,5 C 87 % 1029,0 hPa 0,0 l/m 11,8 km/h (2 Bft) O-NO 70 0 min 0,000 mm 0,0 UV-I 0 W/m -3,4 C -6,6 C 19,3 km/h (3 Bft) 91,49 %
14.02.2017 04:00 -1,4 C 87 % 1029,1 hPa 0,0 l/m 16,4 km/h (3 Bft) NO 55 0 min 0,026 mm 0,0 UV-I 0 W/m -3,3 C -9,5 C 25,7 km/h (4 Bft) 98,00 %
14.02.2017 04:04 -1,4 C 87 % 1029,1 hPa 0,0 l/m 14,4 km/h (3 Bft) O-NO 63 0 min 0,000 mm 0,0 UV-I 0 W/m -3,3 C -8,3 C 20,9 km/h (4 Bft) 93,55 %
14.02.2017 04:06 -1,4 C 87 % 1029,1 hPa 0,0 l/m 14,4 km/h (3 Bft) O-NO 60 0 min 0,000 mm 0,0 UV-I 0 W/m -3,3 C -8,3 C 20,9 km/h (4 Bft) 97,62 %
14.02.2017 04:08 -1,4 C 87 % 1029,1 hPa 0,0 l/m 15,1 km/h (3 Bft) O-NO 61 0 min 0,000 mm 0,0 UV-I 0 W/m -3,3 C -8,7 C 17,7 km/h (3 Bft) 94,34 %
14.02.2017 04:10 -1,4 C 87 % 1029,1 hPa 0,0 l/m 14,4 km/h (3 Bft) O-NO 72 0 min 0,000 mm 0,0 UV-I 0 W/m -3,3 C -8,3 C 17,7 km/h (3 Bft) 97,87 %
14.02.2017 04:12 -1,4 C 87 % 1029,1 hPa 0,0 l/m 12,5 km/h (3 Bft) NO 49 0 min 0,000 mm 0,0 UV-I 0 W/m -3,3 C -7,0 C 19,3 km/h (3 Bft) 95,74 %
14.02.2017 04:14 -1,4 C 87 % 1029,1 hPa 0,0 l/m 13,4 km/h (3 Bft) O-NO 63 0 min 0,000 mm 0,0 UV-I 0 W/m -3,3 C -7,6 C 22,5 km/h (4 Bft) 95,74 %
14.02.2017 04:16 -1,4 C 87 % 1029,1 hPa 0,0 l/m 15,1 km/h (3 Bft) N-NO 33 0 min 0,000 mm 0,0 UV-I 0 W/m -3,3 C -8,7 C 22,5 km/h (4 Bft) 97,73 %
14.02.2017 04:18 -1,5 C 87 % 1029,2 hPa 0,0 l/m 17,2 km/h (3 Bft) O-NO 61 0 min 0,000 mm 0,0 UV-I 0 W/m -3,4 C -10,1 C 25,7 km/h (4 Bft) 98,00 %
14.02.2017 04:20 -1,4 C 87 % 1029,2 hPa 0,0 l/m 20,2 km/h (4 Bft) O 79 0 min 0,000 mm 0,0 UV-I 0 W/m -3,3 C -11,5 C 25,7 km/h (4 Bft) 97,56 %
14.02.2017 04:22 -1,4 C 87 % 1029,2 hPa 0,0 l/m 19,4 km/h (3 Bft) NO 37 0 min 0,000 mm 0,0 UV-I 0 W/m -3,3 C -11,1 C 25,7 km/h (4 Bft) 96,00 %
14.02.2017 04:24 -1,4 C 87 % 1029,2 hPa 0,0 l/m 17,2 km/h (3 Bft) O-NO 60 0 min 0,000 mm 0,0 UV-I 0 W/m -3,3 C -10,0 C 22,5 km/h (4 Bft) 98,00 %
14.02.2017 04:26 -1,4 C 87 % 1029,2 hPa 0,0 l/m 21,1 km/h (4 Bft) NO 47 0 min 0,000 mm 0,0 UV-I 0 W/m -3,3 C -12,0 C 29,0 km/h (5 Bft) 97,87 %
14.02.2017 04:28 -1,4 C 87 % 1029,2 hPa 0,0 l/m 21,4 km/h (4 Bft) NO 45 0 min 0,000 mm 0,0 UV-I 0 W/m -3,3 C -12,1 C 32,2 km/h (5 Bft) 100,00 %
14.02.2017 04:30 -1,3 C 86 % 1029,1 hPa 0,0 l/m 18,6 km/h (3 Bft) O-NO 65 0 min 0,000 mm 0,0 UV-I 0 W/m -3,3 C -10,6 C 25,7 km/h (4 Bft) 100,00 %
14.02.2017 04:32 -1,3 C 86 % 1029,1 hPa 0,0 l/m 18,1 km/h (3 Bft) O-NO 68 0 min 0,000 mm 0,0 UV-I 0 W/m -3,3 C -10,3 C 22,5 km/h (4 Bft) 97,56 %
14.02.2017 04:34 -1,3 C 86 % 1029,1 hPa 0,0 l/m 20,4 km/h (4 Bft) O 96 0 min 0,000 mm 0,0 UV-I 0 W/m -3,3 C -11,5 C 29,0 km/h (5 Bft) 98,00 %
14.02.2017 04:36 -1,3 C 86 % 1029,1 hPa 0,0 l/m 18,9 km/h (3 Bft) O-NO 70 0 min 0,000 mm 0,0 UV-I 0 W/m -3,3 C -10,8 C 24,1 km/h (4 Bft) 97,56 %
14.02.2017 04:38 -1,3 C 86 % 1029,1 hPa 0,0 l/m 22,2 km/h (4 Bft) O-NO 75 0 min 0,000 mm 0,0 UV-I 0 W/m -3,3 C -12,3 C 35,4 km/h (5 Bft) 98,11 %
14.02.2017 04:40 -1,3 C 86 % 1029,1 hPa 0,0 l/m 25,6 km/h (4 Bft) O-NO 65 0 min 0,000 mm 0,0 UV-I 0 W/m -3,3 C -13,7 C 32,2 km/h (5 Bft) 97,73 %
14.02.2017 04:42 -1,3 C 86 % 1029,1 hPa 0,0 l/m 21,9 km/h (4 Bft) O-NO 60 0 min 0,000 mm 0,0 UV-I 0 W/m -3,3 C -12,2 C 30,6 km/h (5 Bft) 96,23 %
14.02.2017 04:44 -1,2 C 85 % 1029,1 hPa 0,0 l/m 23,0 km/h (4 Bft) O-NO 61 0 min 0,000 mm 0,0 UV-I 0 W/m -3,4 C -12,5 C 32,2 km/h (5 Bft) 97,44 %
14.02.2017 04:46 -1,2 C 85 % 1029,1 hPa 0,0 l/m 19,7 km/h (3 Bft) O-NO 78 0 min 0,000 mm 0,0 UV-I 0 W/m -3,4 C -11,0 C 25,7 km/h (4 Bft) 96,15 %
14.02.2017 04:48 -1,2 C 85 % 1029,2 hPa 0,0 l/m 23,6 km/h (4 Bft) O-NO 67 0 min 0,000 mm 0,0 UV-I 0 W/m -3,4 C -12,8 C 29,0 km/h (5 Bft) 95,24 %
14.02.2017 04:50 -1,2 C 85 % 1029,2 hPa 0,0 l/m 20,9 km/h (4 Bft) O-NO 77 0 min 0,000 mm 0,0 UV-I 0 W/m -3,4 C -11,6 C 29,0 km/h (5 Bft) 96,23 %
14.02.2017 04:52 -1,2 C 85 % 1029,3 hPa 0,0 l/m 23,4 km/h (4 Bft) O-NO 68 0 min 0,000 mm 0,0 UV-I 0 W/m -3,4 C -12,7 C 32,2 km/h (5 Bft) 94,74 %
14.02.2017 04:54 -1,2 C 85 % 1029,2 hPa 0,0 l/m 23,8 km/h (4 Bft) NO 51 0 min 0,000 mm 0,0 UV-I 0 W/m -3,4 C -12,9 C 35,4 km/h (5 Bft) 96,23 %
14.02.2017 04:56 -1,2 C 85 % 1029,2 hPa 0,0 l/m 26,6 km/h (4 Bft) O 82 0 min 0,000 mm 0,0 UV-I 0 W/m -3,4 C -13,9 C 35,4 km/h (5 Bft) 94,00 %
14.02.2017 04:58 -1,2 C 85 % 1029,2 hPa 0,0 l/m 24,0 km/h (4 Bft) O-NO 74 0 min 0,000 mm 0,0 UV-I 0 W/m -3,4 C -12,9 C 30,6 km/h (5 Bft) 95,12 %
14.02.2017 05:00 -1,2 C 85 % 1029,2 hPa 0,0 l/m 23,7 km/h (4 Bft) O-NO 76 0 min 0,025 mm 0,0 UV-I 0 W/m -3,4 C -12,8 C 30,6 km/h (5 Bft) 98,00 %
14.02.2017 05:02 -1,2 C 85 % 1029,2 hPa 0,0 l/m 26,2 km/h (4 Bft) O-NO 75 0 min 0,000 mm 0,0 UV-I 0 W/m -3,4 C -13,8 C 35,4 km/h (5 Bft) 92,68 %
14.02.2017 05:04 -1,2 C 85 % 1029,2 hPa 0,0 l/m 26,1 km/h (4 Bft) O-NO 68 0 min 0,000 mm 0,0 UV-I 0 W/m -3,4 C -13,8 C 35,4 km/h (5 Bft) 98,21 %
14.02.2017 05:06 -1,2 C 85 % 1029,1 hPa 0,0 l/m 24,1 km/h (4 Bft) O 98 0 min 0,000 mm 0,0 UV-I 0 W/m -3,4 C -13,0 C 32,2 km/h (5 Bft) 95,45 %
14.02.2017 05:08 -1,2 C 85 % 1029,2 hPa 0,0 l/m 25,0 km/h (4 Bft) O-NO 63 0 min 0,000 mm 0,0 UV-I 0 W/m -3,4 C -13,3 C 32,2 km/h (5 Bft) 97,56 %
14.02.2017 05:10 -1,2 C 85 % 1029,2 hPa 0,0 l/m 27,1 km/h (4 Bft) O-NO 71 0 min 0,000 mm 0,0 UV-I 0 W/m -3,4 C -14,1 C 37,0 km/h (5 Bft) 94,34 %
14.02.2017 05:12 -1,2 C 85 % 1029,2 hPa 0,0 l/m 27,6 km/h (4 Bft) O 90 0 min 0,000 mm 0,0 UV-I 0 W/m -3,4 C -14,3 C 38,6 km/h (5 Bft) 96,00 %
14.02.2017 05:14 -1,2 C 85 % 1029,2 hPa 0,0 l/m 21,0 km/h (4 Bft) O-NO 69 0 min 0,000 mm 0,0 UV-I 0 W/m -3,4 C -11,7 C 29,0 km/h (5 Bft) 97,14 %
14.02.2017 05:16 -1,2 C 85 % 1029,3 hPa 0,0 l/m 22,9 km/h (4 Bft) NO 42 0 min 0,000 mm 0,0 UV-I 0 W/m -3,4 C -12,5 C 30,6 km/h (5 Bft) 96,23 %
14.02.2017 05:18 -1,3 C 85 % 1029,2 hPa 0,0 l/m 22,1 km/h (4 Bft) O-NO 78 0 min 0,000 mm 0,0 UV-I 0 W/m -3,5 C -12,3 C 27,4 km/h (4 Bft) 100,00 %
14.02.2017 05:20 -1,3 C 85 % 1029,2 hPa 0,0 l/m 22,5 km/h (4 Bft) NO 52 0 min 0,000 mm 0,0 UV-I 0 W/m -3,5 C -12,5 C 30,6 km/h (5 Bft) 96,43 %
14.02.2017 05:22 -1,3 C 85 % 1029,3 hPa 0,0 l/m 20,3 km/h (4 Bft) O-NO 62 0 min 0,000 mm 0,0 UV-I 0 W/m -3,5 C -11,5 C 27,4 km/h (4 Bft) 97,62 %
14.02.2017 05:24 -1,4 C 85 % 1029,3 hPa 0,0 l/m 21,5 km/h (4 Bft) O-NO 63 0 min 0,000 mm 0,0 UV-I 0 W/m -3,6 C -12,1 C 25,7 km/h (4 Bft) 100,00 %
14.02.2017 05:26 -1,4 C 85 % 1029,3 hPa 0,0 l/m 21,9 km/h (4 Bft) NO 54 0 min 0,000 mm 0,0 UV-I 0 W/m -3,6 C -12,3 C 33,8 km/h (5 Bft) 97,87 %
14.02.2017 05:28 -1,4 C 85 % 1029,3 hPa 0,0 l/m 23,8 km/h (4 Bft) O-NO 71 0 min 0,000 mm 0,0 UV-I 0 W/m -3,6 C -13,1 C 35,4 km/h (5 Bft) 100,00 %
14.02.2017 05:30 -1,3 C 85 % 1029,3 hPa 0,0 l/m 26,6 km/h (4 Bft) O-NO 60 0 min 0,000 mm 0,0 UV-I 0 W/m -3,5 C -14,1 C 33,8 km/h (5 Bft) 100,00 %
14.02.2017 05:32 -1,3 C 85 % 1029,3 hPa 0,0 l/m 22,2 km/h (4 Bft) O-NO 64 0 min 0,000 mm 0,0 UV-I 0 W/m -3,5 C -12,3 C 29,0 km/h (5 Bft) 97,56 %
14.02.2017 05:34 -1,3 C 85 % 1029,4 hPa 0,0 l/m 24,1 km/h (4 Bft) NO 39 0 min 0,000 mm 0,0 UV-I 0 W/m -3,5 C -13,1 C 30,6 km/h (5 Bft) 100,00 %
14.02.2017 05:36 -1,3 C 85 % 1029,4 hPa 0,0 l/m 24,8 km/h (4 Bft) O 80 0 min 0,000 mm 0,0 UV-I 0 W/m -3,5 C -13,4 C 32,2 km/h (5 Bft) 100,00 %
14.02.2017 05:38 -1,3 C 85 % 1029,4 hPa 0,0 l/m 23,4 km/h (4 Bft) O-NO 72 0 min 0,000 mm 0,0 UV-I 0 W/m -3,5 C -12,8 C 33,8 km/h (5 Bft) 97,56 %
14.02.2017 05:40 -1,3 C 85 % 1029,4 hPa 0,0 l/m 20,6 km/h (4 Bft) O-NO 68 0 min 0,000 mm 0,0 UV-I 0 W/m -3,5 C -11,6 C 29,0 km/h (5 Bft) 100,00 %
14.02.2017 05:42 -1,4 C 85 % 1029,4 hPa 0,0 l/m 20,4 km/h (4 Bft) NO 56 0 min 0,000 mm 0,0 UV-I 0 W/m -3,6 C -11,6 C 25,7 km/h (4 Bft) 97,73 %
14.02.2017 05:44 -1,4 C 85 % 1029,4 hPa 0,0 l/m 20,4 km/h (4 Bft) O-NO 69 0 min 0,000 mm 0,0 UV-I 0 W/m -3,6 C -11,6 C 29,0 km/h (5 Bft) 98,00 %
14.02.2017 05:46 -1,4 C 86 % 1029,5 hPa 0,0 l/m 20,2 km/h (4 Bft) NO 53 0 min 0,000 mm 0,0 UV-I 0 W/m -3,4 C -11,5 C 25,7 km/h (4 Bft) 97,56 %
14.02.2017 05:48 -1,4 C 85 % 1029,4 hPa 0,0 l/m 21,0 km/h (4 Bft) O-NO 57 0 min 0,000 mm 0,0 UV-I 0 W/m -3,6 C -11,9 C 27,4 km/h (4 Bft) 97,37 %
14.02.2017 05:50 -1,4 C 86 % 1029,5 hPa 0,0 l/m 20,1 km/h (4 Bft) NO 55 0 min 0,000 mm 0,0 UV-I 0 W/m -3,4 C -11,5 C 27,4 km/h (4 Bft) 100,00 %
14.02.2017 05:52 -1,5 C 86 % 1029,5 hPa 0,0 l/m 16,9 km/h (3 Bft) O 79 0 min 0,000 mm 0,0 UV-I 0 W/m -3,5 C -9,9 C 25,7 km/h (4 Bft) 97,73 %
14.02.2017 05:54 -1,5 C 85 % 1029,5 hPa 0,0 l/m 17,5 km/h (3 Bft) O-NO 76 0 min 0,000 mm 0,0 UV-I 0 W/m -3,7 C -10,3 C 22,5 km/h (4 Bft) 100,00 %
14.02.2017 05:56 -1,6 C 86 % 1029,5 hPa 0,0 l/m 19,4 km/h (3 Bft) NO 52 0 min 0,000 mm 0,0 UV-I 0 W/m -3,6 C -11,4 C 27,4 km/h (4 Bft) 97,73 %
14.02.2017 05:58 -1,6 C 86 % 1029,5 hPa 0,0 l/m 19,4 km/h (3 Bft) O-NO 78 0 min 0,000 mm 0,0 UV-I 0 W/m -3,6 C -11,4 C 30,6 km/h (5 Bft) 94,74 %
14.02.2017 06:00 -1,6 C 86 % 1029,5 hPa 0,0 l/m 21,1 km/h (4 Bft) NO 53 0 min 0,025 mm 0,0 UV-I 0 W/m -3,6 C -12,2 C 27,4 km/h (4 Bft) 96,23 %
14.02.2017 06:02 -1,6 C 86 % 1029,5 hPa 0,0 l/m 21,1 km/h (4 Bft) O 84 0 min 0,000 mm 0,0 UV-I 0 W/m -3,6 C -12,2 C 32,2 km/h (5 Bft) 94,34 %
14.02.2017 06:04 -1,6 C 86 % 1029,5 hPa 0,0 l/m 19,9 km/h (4 Bft) O 80 0 min 0,000 mm 0,0 UV-I 0 W/m -3,6 C -11,6 C 27,4 km/h (4 Bft) 97,56 %
14.02.2017 06:06 -1,6 C 86 % 1029,5 hPa 0,0 l/m 22,3 km/h (4 Bft) O-NO 61 0 min 0,000 mm 0,0 UV-I 0 W/m -3,6 C -12,8 C 29,0 km/h (5 Bft) 93,33 %
14.02.2017 06:08 -1,5 C 86 % 1029,5 hPa 0,0 l/m 18,4 km/h (3 Bft) O-NO 62 0 min 0,000 mm 0,0 UV-I 0 W/m -3,5 C -10,8 C 24,1 km/h (4 Bft) 94,00 %
14.02.2017 06:10 -1,6 C 86 % 1029,5 hPa 0,0 l/m 18,5 km/h (3 Bft) O-NO 76 0 min 0,000 mm 0,0 UV-I 0 W/m -3,6 C -10,9 C 22,5 km/h (4 Bft) 96,00 %
14.02.2017 06:12 -1,6 C 86 % 1029,6 hPa 0,0 l/m 17,7 km/h (3 Bft) O-NO 67 0 min 0,000 mm 0,0 UV-I 0 W/m -3,6 C -10,5 C 20,9 km/h (4 Bft) 95,74 %
14.02.2017 06:14 -1,6 C 86 % 1029,5 hPa 0,0 l/m 16,5 km/h (3 Bft) O-NO 69 0 min 0,000 mm 0,0 UV-I 0 W/m -3,6 C -9,8 C 20,9 km/h (4 Bft) 97,56 %
14.02.2017 06:16 -1,6 C 86 % 1029,6 hPa 0,0 l/m 19,1 km/h (3 Bft) O-NO 69 0 min 0,000 mm 0,0 UV-I 0 W/m -3,6 C -11,2 C 24,1 km/h (4 Bft) 95,45 %
14.02.2017 06:18 -1,6 C 86 % 1029,6 hPa 0,0 l/m 17,7 km/h (3 Bft) O-NO 78 0 min 0,000 mm 0,0 UV-I 0 W/m -3,6 C -10,5 C 27,4 km/h (4 Bft) 95,45 %
14.02.2017 06:20 -1,6 C 86 % 1029,6 hPa 0,0 l/m 16,8 km/h (3 Bft) O 84 0 min 0,000 mm 0,0 UV-I 0 W/m -3,6 C -10,0 C 22,5 km/h (4 Bft) 96,61 %
14.02.2017 06:22 -1,6 C 86 % 1029,6 hPa 0,0 l/m 17,7 km/h (3 Bft) O-NO 66 0 min 0,000 mm 0,0 UV-I 0 W/m -3,6 C -10,5 C 27,4 km/h (4 Bft) 96,55 %
14.02.2017 06:24 -1,6 C 86 % 1029,6 hPa 0,0 l/m 20,6 km/h (4 Bft) O-NO 61 0 min 0,000 mm 0,0 UV-I 0 W/m -3,6 C -12,0 C 27,4 km/h (4 Bft) 96,23 %
14.02.2017 06:26 -1,6 C 86 % 1029,6 hPa 0,0 l/m 21,0 km/h (4 Bft) O-NO 76 0 min 0,000 mm 0,0 UV-I 0 W/m -3,6 C -12,2 C 30,6 km/h (5 Bft) 96,43 %
14.02.2017 06:28 -1,6 C 86 % 1029,6 hPa 0,0 l/m 21,4 km/h (4 Bft) O 80 0 min 0,000 mm 0,0 UV-I 0 W/m -3,6 C -12,4 C 27,4 km/h (4 Bft) 95,45 %
14.02.2017 06:30 -1,6 C 86 % 1029,7 hPa 0,0 l/m 21,3 km/h (4 Bft) O-NO 72 0 min 0,000 mm 0,0 UV-I 0 W/m -3,6 C -12,3 C 25,7 km/h (4 Bft) 95,45 %
14.02.2017 06:32 -1,6 C 86 % 1029,7 hPa 0,0 l/m 20,2 km/h (4 Bft) O-NO 74 0 min 0,000 mm 0,0 UV-I 0 W/m -3,6 C -11,8 C 30,6 km/h (5 Bft) 96,00 %
14.02.2017 06:34 -1,6 C 86 % 1029,7 hPa 0,0 l/m 23,4 km/h (4 Bft) O-NO 71 0 min 0,000 mm 0,0 UV-I 0 W/m -3,6 C -13,2 C 30,6 km/h (5 Bft) 96,00 %
14.02.2017 06:36 -1,6 C 86 % 1029,7 hPa 0,0 l/m 19,0 km/h (3 Bft) O-NO 59 0 min 0,000 mm 0,0 UV-I 0 W/m -3,6 C -11,2 C 27,4 km/h (4 Bft) 92,11 %
14.02.2017 06:38 -1,6 C 86 % 1029,7 hPa 0,0 l/m 22,4 km/h (4 Bft) O-NO 71 0 min 0,000 mm 0,0 UV-I 0 W/m -3,6 C -12,8 C 29,0 km/h (5 Bft) 96,23 %
14.02.2017 06:40 -1,6 C 86 % 1029,7 hPa 0,0 l/m 21,3 km/h (4 Bft) O-NO 66 0 min 0,000 mm 0,0 UV-I 0 W/m -3,6 C -12,3 C 33,8 km/h (5 Bft) 97,56 %
14.02.2017 06:42 -1,6 C 86 % 1029,7 hPa 0,0 l/m 24,6 km/h (4 Bft) O 80 0 min 0,000 mm 0,0 UV-I 0 W/m -3,6 C -13,7 C 38,6 km/h (5 Bft) 94,00 %
14.02.2017 06:44 -1,6 C 86 % 1029,7 hPa 0,0 l/m 21,9 km/h (4 Bft) O-NO 68 0 min 0,000 mm 0,0 UV-I 0 W/m -3,6 C -12,6 C 27,4 km/h (4 Bft) 95,56 %
14.02.2017 06:46 -1,6 C 86 % 1029,8 hPa 0,0 l/m 21,7 km/h (4 Bft) O-NO 76 0 min 0,000 mm 0,0 UV-I 0 W/m -3,6 C -12,5 C 27,4 km/h (4 Bft) 98,00 %
14.02.2017 06:48 -1,6 C 86 % 1029,8 hPa 0,0 l/m 23,4 km/h (4 Bft) O 84 0 min 0,000 mm 0,0 UV-I 0 W/m -3,6 C -13,2 C 30,6 km/h (5 Bft) 97,56 %
14.02.2017 06:50 -1,6 C 86 % 1029,9 hPa 0,0 l/m 26,7 km/h (4 Bft) O-NO 65 0 min 0,000 mm 0,0 UV-I 0 W/m -3,6 C -14,5 C 35,4 km/h (5 Bft) 94,92 %
14.02.2017 06:52 -1,5 C 86 % 1029,8 hPa 0,0 l/m 28,1 km/h (4 Bft) NO 51 0 min 0,000 mm 0,0 UV-I 0 W/m -3,5 C -14,9 C 40,2 km/h (6 Bft) 100,00 %
14.02.2017 06:54 -1,5 C 85 % 1029,9 hPa 0,0 l/m 25,0 km/h (4 Bft) O 84 0 min 0,000 mm 0,0 UV-I 0 W/m -3,7 C -13,8 C 35,4 km/h (5 Bft) 95,45 %
14.02.2017 06:56 -1,5 C 86 % 1030,0 hPa 0,0 l/m 27,0 km/h (4 Bft) O-NO 78 0 min 0,000 mm 0,0 UV-I 0 W/m -3,5 C -14,5 C 35,4 km/h (5 Bft) 93,22 %
14.02.2017 06:58 -1,5 C 85 % 1030,1 hPa 0,0 l/m 30,6 km/h (5 Bft) O-NO 65 0 min 0,000 mm 0,0 UV-I 3 W/m -3,7 C -15,7 C 45,1 km/h (6 Bft) 92,11 %
14.02.2017 07:00 -1,5 C 85 % 1030,1 hPa 0,0 l/m 26,4 km/h (4 Bft) NO 51 0 min 0,026 mm 0,0 UV-I 5 W/m -3,7 C -14,3 C 33,8 km/h (5 Bft) 92,00 %
14.02.2017 07:02 -1,5 C 85 % 1030,1 hPa 0,0 l/m 27,3 km/h (4 Bft) NO 55 0 min 0,000 mm 0,0 UV-I 5 W/m -3,7 C -14,6 C 41,8 km/h (6 Bft) 96,23 %
14.02.2017 07:04 -1,5 C 85 % 1030,2 hPa 0,0 l/m 27,9 km/h (4 Bft) O-NO 69 0 min 0,000 mm 0,0 UV-I 5 W/m -3,7 C -14,8 C 40,2 km/h (6 Bft) 93,18 %
14.02.2017 07:06 -1,5 C 85 % 1030,2 hPa 0,0 l/m 28,7 km/h (4 Bft) NO 55 0 min 0,000 mm 0,0 UV-I 7 W/m -3,7 C -15,1 C 40,2 km/h (6 Bft) 97,37 %
14.02.2017 07:08 -1,4 C 86 % 1030,2 hPa 0,0 l/m 27,4 km/h (4 Bft) O-NO 58 0 min 0,000 mm 0,0 UV-I 7 W/m -3,4 C -14,5 C 37,0 km/h (5 Bft) 98,21 %
14.02.2017 07:10 -1,4 C 85 % 1030,3 hPa 0,0 l/m 28,7 km/h (4 Bft) O-NO 69 0 min 0,000 mm 0,0 UV-I 7 W/m -3,6 C -15,0 C 38,6 km/h (5 Bft) 93,62 %
14.02.2017 07:12 -1,4 C 85 % 1030,3 hPa 0,0 l/m 24,7 km/h (4 Bft) NO 48 0 min 0,000 mm 0,0 UV-I 9 W/m -3,6 C -13,5 C 32,2 km/h (5 Bft) 97,14 %
14.02.2017 07:14 -1,5 C 85 % 1030,3 hPa 0,0 l/m 25,3 km/h (4 Bft) NO 53 0 min 0,000 mm 0,0 UV-I 9 W/m -3,7 C -13,9 C 33,8 km/h (5 Bft) 98,11 %
14.02.2017 07:16 -1,5 C 85 % 1030,3 hPa 0,0 l/m 22,6 km/h (4 Bft) O-NO 71 0 min 0,000 mm 0,0 UV-I 10 W/m -3,7 C -12,8 C 33,8 km/h (5 Bft) 93,62 %
14.02.2017 07:18 -1,5 C 86 % 1030,3 hPa 0,0 l/m 24,2 km/h (4 Bft) O-NO 57 0 min 0,000 mm 0,0 UV-I 11 W/m -3,5 C -13,4 C 33,8 km/h (5 Bft) 97,56 %
14.02.2017 07:20 -1,5 C 86 % 1030,4 hPa 0,0 l/m 25,3 km/h (4 Bft) NO 46 0 min 0,000 mm 0,0 UV-I 12 W/m -3,5 C -13,9 C 33,8 km/h (5 Bft) 96,23 %
14.02.2017 07:22 -1,6 C 85 % 1030,4 hPa 0,0 l/m 25,7 km/h (4 Bft) O-NO 63 0 min 0,000 mm 0,0 UV-I 14 W/m -3,8 C -14,2 C 33,8 km/h (5 Bft) 98,11 %
14.02.2017 07:24 -1,6 C 85 % 1030,5 hPa 0,0 l/m 23,4 km/h (4 Bft) O 81 2 min 0,000 mm 0,0 UV-I 16 W/m -3,8 C -13,2 C 32,2 km/h (5 Bft) 100,00 %
14.02.2017 07:26 -1,6 C 86 % 1030,4 hPa 0,0 l/m 23,4 km/h (4 Bft) O-NO 70 2 min 0,000 mm 0,0 UV-I 17 W/m -3,6 C -13,2 C 32,2 km/h (5 Bft) 98,00 %
14.02.2017 07:28 -1,6 C 86 % 1030,4 hPa 0,0 l/m 22,4 km/h (4 Bft) NO 50 2 min 0,000 mm 0,0 UV-I 18 W/m -3,6 C -12,8 C 29,0 km/h (5 Bft) 100,00 %
14.02.2017 07:30 -1,6 C 86 % 1030,5 hPa 0,0 l/m 20,6 km/h (4 Bft) O-NO 68 2 min 0,000 mm 0,0 UV-I 20 W/m -3,6 C -12,0 C 29,0 km/h (5 Bft) 100,00 %
14.02.2017 07:32 -1,6 C 86 % 1030,5 hPa 0,0 l/m 24,8 km/h (4 Bft) O-NO 63 0 min 0,000 mm 0,0 UV-I 21 W/m -3,6 C -13,8 C 32,2 km/h (5 Bft) 97,56 %
14.02.2017 07:34 -1,6 C 86 % 1030,5 hPa 0,0 l/m 26,4 km/h (4 Bft) O-NO 67 0 min 0,000 mm 0,0 UV-I 24 W/m -3,6 C -14,4 C 37,0 km/h (5 Bft) 96,23 %
14.02.2017 07:36 -1,6 C 86 % 1030,5 hPa 0,0 l/m 24,2 km/h (4 Bft) O-NO 77 0 min 0,000 mm 0,0 UV-I 25 W/m -3,6 C -13,6 C 32,2 km/h (5 Bft) 97,37 %
14.02.2017 07:38 -1,6 C 86 % 1030,6 hPa 0,0 l/m 21,0 km/h (4 Bft) O-NO 66 0 min 0,000 mm 0,0 UV-I 26 W/m -3,6 C -12,2 C 29,0 km/h (5 Bft) 94,00 %
14.02.2017 07:40 -1,6 C 86 % 1030,6 hPa 0,0 l/m 20,8 km/h (4 Bft) O-NO 69 0 min 0,000 mm 0,0 UV-I 29 W/m -3,6 C -12,1 C 30,6 km/h (5 Bft) 100,00 %
14.02.2017 07:42 -1,6 C 86 % 1030,7 hPa 0,0 l/m 18,7 km/h (3 Bft) O-NO 65 2 min 0,000 mm 0,0 UV-I 41 W/m -3,6 C -11,0 C 25,7 km/h (4 Bft) 100,00 %
14.02.2017 07:44 -1,6 C 86 % 1030,6 hPa 0,0 l/m 21,0 km/h (4 Bft) O-NO 77 2 min 0,000 mm 0,0 UV-I 52 W/m -3,6 C -12,2 C 29,0 km/h (5 Bft) 94,00 %
14.02.2017 07:46 -1,6 C 86 % 1030,7 hPa 0,0 l/m 22,2 km/h (4 Bft) O-NO 76 2 min 0,000 mm 0,0 UV-I 58 W/m -3,6 C -12,7 C 30,6 km/h (5 Bft) 100,00 %
14.02.2017 07:48 -1,6 C 86 % 1030,7 hPa 0,0 l/m 22,1 km/h (4 Bft) O 82 2 min 0,000 mm 0,0 UV-I 62 W/m -3,6 C -12,7 C 32,2 km/h (5 Bft) 100,00 %
14.02.2017 07:50 -1,6 C 86 % 1030,7 hPa 0,0 l/m 20,5 km/h (4 Bft) O-NO 65 2 min 0,000 mm 0,0 UV-I 67 W/m -3,6 C -11,9 C 27,4 km/h (4 Bft) 98,11 %
14.02.2017 07:52 -1,6 C 86 % 1030,8 hPa 0,0 l/m 19,4 km/h (3 Bft) O 86 2 min 0,000 mm 0,0 UV-I 71 W/m -3,6 C -11,4 C 27,4 km/h (4 Bft) 98,11 %
14.02.2017 07:54 -1,5 C 86 % 1030,8 hPa 0,0 l/m 25,6 km/h (4 Bft) O 81 2 min 0,000 mm 0,0 UV-I 75 W/m -3,5 C -14,0 C 32,2 km/h (5 Bft) 100,00 %
14.02.2017 07:56 -1,5 C 86 % 1030,8 hPa 0,0 l/m 19,8 km/h (3 Bft) O-NO 78 2 min 0,000 mm 0,0 UV-I 81 W/m -3,5 C -11,5 C 27,4 km/h (4 Bft) 97,37 %
14.02.2017 07:58 -1,4 C 86 % 1030,7 hPa 0,0 l/m 20,3 km/h (4 Bft) O 100 2 min 0,000 mm 0,0 UV-I 84 W/m -3,4 C -11,6 C 27,4 km/h (4 Bft) 97,87 %
14.02.2017 08:00 -1,4 C 86 % 1030,8 hPa 0,0 l/m 19,7 km/h (3 Bft) O 90 2 min 0,025 mm 0,0 UV-I 89 W/m -3,4 C -11,3 C 30,6 km/h (5 Bft) 96,00 %
14.02.2017 08:02 -1,4 C 85 % 1030,8 hPa 0,0 l/m 20,1 km/h (4 Bft) O-NO 78 2 min 0,000 mm 0,0 UV-I 94 W/m -3,6 C -11,5 C 29,0 km/h (5 Bft) 92,31 %
14.02.2017 08:04 -1,3 C 85 % 1030,8 hPa 0,0 l/m 24,1 km/h (4 Bft) O-NO 77 2 min 0,000 mm 0,0 UV-I 99 W/m -3,5 C -13,1 C 35,4 km/h (5 Bft) 96,36 %
14.02.2017 08:06 -1,3 C 85 % 1030,8 hPa 0,0 l/m 21,3 km/h (4 Bft) O-NO 61 2 min 0,000 mm 0,0 UV-I 103 W/m -3,5 C -11,9 C 27,4 km/h (4 Bft) 97,62 %
14.02.2017 08:08 -1,3 C 85 % 1030,9 hPa 0,0 l/m 18,1 km/h (3 Bft) O-NO 75 2 min 0,000 mm 0,0 UV-I 108 W/m -3,5 C -10,3 C 22,5 km/h (4 Bft) 98,00 %
14.02.2017 08:10 -1,3 C 85 % 1030,8 hPa 0,0 l/m 21,2 km/h (4 Bft) O-NO 57 2 min 0,000 mm 0,0 UV-I 114 W/m -3,5 C -11,9 C 29,0 km/h (5 Bft) 98,00 %
14.02.2017 08:12 -1,3 C 85 % 1030,8 hPa 0,0 l/m 17,5 km/h (3 Bft) O 83 2 min 0,000 mm 0,0 UV-I 119 W/m -3,5 C -10,0 C 22,5 km/h (4 Bft) 97,87 %
14.02.2017 08:14 -1,3 C 85 % 1030,9 hPa 0,0 l/m 20,3 km/h (4 Bft) O 91 2 min 0,000 mm 0,0 UV-I 123 W/m -3,5 C -11,5 C 30,6 km/h (5 Bft) 97,87 %
14.02.2017 08:16 -1,2 C 85 % 1030,8 hPa 0,0 l/m 16,6 km/h (3 Bft) O-NO 60 2 min 0,000 mm 0,0 UV-I 128 W/m -3,4 C -9,4 C 22,5 km/h (4 Bft) 92,00 %
14.02.2017 08:18 -1,2 C 85 % 1030,8 hPa 0,0 l/m 14,5 km/h (3 Bft) O-NO 78 2 min 0,000 mm 0,0 UV-I 134 W/m -3,4 C -8,1 C 19,3 km/h (3 Bft) 95,12 %
14.02.2017 08:20 -1,2 C 85 % 1030,8 hPa 0,0 l/m 17,5 km/h (3 Bft) O-NO 76 2 min 0,000 mm 0,0 UV-I 140 W/m -3,4 C -9,9 C 24,1 km/h (4 Bft) 95,12 %
14.02.2017 08:22 -1,2 C 85 % 1030,8 hPa 0,0 l/m 15,7 km/h (3 Bft) O-NO 57 2 min 0,000 mm 0,0 UV-I 144 W/m -3,4 C -8,9 C 20,9 km/h (4 Bft) 96,43 %
14.02.2017 08:24 -1,2 C 85 % 1030,8 hPa 0,0 l/m 19,9 km/h (4 Bft) O 85 2 min 0,000 mm 0,0 UV-I 150 W/m -3,4 C -11,1 C 25,7 km/h (4 Bft) 98,00 %
14.02.2017 08:26 -1,1 C 85 % 1030,8 hPa 0,0 l/m 16,9 km/h (3 Bft) O-NO 67 2 min 0,000 mm 0,0 UV-I 152 W/m -3,3 C -9,4 C 25,7 km/h (4 Bft) 97,87 %
14.02.2017 08:28 -1,1 C 85 % 1030,9 hPa 0,0 l/m 18,2 km/h (3 Bft) NO 49 2 min 0,000 mm 0,0 UV-I 157 W/m -3,3 C -10,1 C 25,7 km/h (4 Bft) 92,68 %
14.02.2017 08:30 -1,1 C 85 % 1031,0 hPa 0,0 l/m 22,7 km/h (4 Bft) O 79 2 min 0,000 mm 0,0 UV-I 161 W/m -3,3 C -12,3 C 29,0 km/h (5 Bft) 96,30 %
14.02.2017 08:32 -1,1 C 84 % 1031,0 hPa 0,0 l/m 19,4 km/h (3 Bft) O-NO 70 2 min 0,000 mm 0,0 UV-I 165 W/m -3,4 C -10,8 C 29,0 km/h (5 Bft) 94,29 %
14.02.2017 08:34 -1,1 C 84 % 1031,0 hPa 0,0 l/m 23,2 km/h (4 Bft) O-NO 60 2 min 0,000 mm 0,0 UV-I 169 W/m -3,4 C -12,5 C 35,4 km/h (5 Bft) 95,12 %
14.02.2017 08:36 -1,1 C 84 % 1031,0 hPa 0,0 l/m 21,6 km/h (4 Bft) NO 53 2 min 0,000 mm 0,0 UV-I 176 W/m -3,4 C -11,8 C 29,0 km/h (5 Bft) 100,00 %
14.02.2017 08:38 -1,0 C 85 % 1031,0 hPa 0,0 l/m 21,5 km/h (4 Bft) NO 49 2 min 0,000 mm 0,0 UV-I 180 W/m -3,2 C -11,6 C 27,4 km/h (4 Bft) 98,00 %
14.02.2017 08:40 -1,0 C 84 % 1031,0 hPa 0,0 l/m 22,0 km/h (4 Bft) O-NO 63 2 min 0,000 mm 0,0 UV-I 184 W/m -3,4 C -11,8 C 30,6 km/h (5 Bft) 98,00 %
14.02.2017 08:42 -1,0 C 84 % 1031,0 hPa 0,0 l/m 22,0 km/h (4 Bft) O-NO 61 2 min 0,000 mm 0,0 UV-I 189 W/m -3,4 C -11,8 C 32,2 km/h (5 Bft) 100,00 %
14.02.2017 08:44 -1,0 C 84 % 1031,0 hPa 0,0 l/m 22,7 km/h (4 Bft) O-NO 65 2 min 0,000 mm 0,0 UV-I 193 W/m -3,4 C -12,1 C 29,0 km/h (5 Bft) 100,00 %
14.02.2017 08:46 -0,9 C 84 % 1031,0 hPa 0,0 l/m 25,0 km/h (4 Bft) O 81 2 min 0,000 mm 0,0 UV-I 196 W/m -3,3 C -12,9 C 33,8 km/h (5 Bft) 97,67 %
14.02.2017 08:49 -0,9 C 84 % 1031,0 hPa 0,0 l/m 25,5 km/h (4 Bft) O-NO 78 3 min 0,000 mm 0,0 UV-I 201 W/m -3,3 C -13,1 C 37,0 km/h (5 Bft) 98,78 %
14.02.2017 08:50 -0,9 C 84 % 1031,0 hPa 0,0 l/m 25,5 km/h (4 Bft) O-NO 76 1 min 0,000 mm 0,0 UV-I 206 W/m -3,3 C -13,1 C 33,8 km/h (5 Bft) 100,00 %
14.02.2017 08:52 -0,9 C 84 % 1031,0 hPa 0,0 l/m 27,4 km/h (4 Bft) NO 56 2 min 0,000 mm 0,0 UV-I 212 W/m -3,3 C -13,8 C 40,2 km/h (6 Bft) 98,11 %
14.02.2017 08:54 -0,9 C 84 % 1031,0 hPa 0,0 l/m 24,0 km/h (4 Bft) O 82 2 min 0,000 mm 0,0 UV-I 220 W/m -3,3 C -12,5 C 32,2 km/h (5 Bft) 98,00 %
14.02.2017 08:56 -0,8 C 84 % 1030,9 hPa 0,0 l/m 28,9 km/h (5 Bft) O-NO 69 2 min 0,000 mm 0,0 UV-I 227 W/m -3,2 C -14,2 C 35,4 km/h (5 Bft) 100,00 %
14.02.2017 08:58 -0,8 C 84 % 1031,0 hPa 0,0 l/m 22,2 km/h (4 Bft) O-NO 68 2 min 0,000 mm 0,0 UV-I 236 W/m -3,2 C -11,7 C 32,2 km/h (5 Bft) 96,23 %
14.02.2017 09:00 -0,8 C 84 % 1031,0 hPa 0,0 l/m 20,3 km/h (4 Bft) O-NO 72 2 min 0,076 mm 0,0 UV-I 240 W/m -3,2 C -10,8 C 32,2 km/h (5 Bft) 98,21 %
14.02.2017 09:02 -0,8 C 84 % 1031,1 hPa 0,0 l/m 21,4 km/h (4 Bft) O-NO 58 2 min 0,000 mm 0,0 UV-I 244 W/m -3,2 C -11,3 C 32,2 km/h (5 Bft) 100,00 %
14.02.2017 09:04 -0,8 C 84 % 1031,2 hPa 0,0 l/m 23,9 km/h (4 Bft) O-NO 69 2 min 0,000 mm 0,0 UV-I 247 W/m -3,2 C -12,4 C 37,0 km/h (5 Bft) 97,06 %
14.02.2017 09:06 -0,7 C 84 % 1031,2 hPa 0,0 l/m 23,6 km/h (4 Bft) O-NO 77 2 min 0,000 mm 0,0 UV-I 251 W/m -3,1 C -12,1 C 30,6 km/h (5 Bft) 98,00 %
14.02.2017 09:08 -0,7 C 84 % 1031,2 hPa 0,0 l/m 18,9 km/h (3 Bft) NO 56 2 min 0,000 mm 0,0 UV-I 253 W/m -3,1 C -10,0 C 29,0 km/h (5 Bft) 100,00 %
14.02.2017 09:10 -0,6 C 84 % 1031,2 hPa 0,0 l/m 18,1 km/h (3 Bft) O-NO 62 2 min 0,000 mm 0,0 UV-I 261 W/m -3,0 C -9,5 C 32,2 km/h (5 Bft) 96,00 %
14.02.2017 09:12 -0,6 C 84 % 1031,2 hPa 0,0 l/m 21,9 km/h (4 Bft) O-NO 61 2 min 0,000 mm 0,0 UV-I 266 W/m -3,0 C -11,3 C 30,6 km/h (5 Bft) 100,00 %
14.02.2017 09:14 -0,6 C 84 % 1031,3 hPa 0,0 l/m 19,6 km/h (3 Bft) O-NO 59 2 min 0,000 mm 0,0 UV-I 272 W/m -3,0 C -10,2 C 25,7 km/h (4 Bft) 100,00 %
14.02.2017 09:16 -0,6 C 84 % 1031,3 hPa 0,0 l/m 18,6 km/h (3 Bft) O-NO 59 2 min 0,000 mm 0,0 UV-I 276 W/m -3,0 C -9,7 C 25,7 km/h (4 Bft) 98,21 %
14.02.2017 09:18 -0,5 C 84 % 1031,3 hPa 0,0 l/m 16,2 km/h (3 Bft) O-NO 70 2 min 0,000 mm 0,1 UV-I 280 W/m -2,9 C -8,3 C 22,5 km/h (4 Bft) 93,18 %
14.02.2017 09:20 -0,4 C 84 % 1031,3 hPa 0,0 l/m 14,8 km/h (3 Bft) NO 51 2 min 0,000 mm 0,5 UV-I 284 W/m -2,8 C -7,3 C 20,9 km/h (4 Bft) 97,87 %
14.02.2017 09:22 -0,4 C 84 % 1031,3 hPa 0,0 l/m 13,2 km/h (3 Bft) O-NO 65 2 min 0,000 mm 0,5 UV-I 289 W/m -2,8 C -6,3 C 20,9 km/h (4 Bft) 97,44 %
14.02.2017 09:24 -0,3 C 83 % 1031,4 hPa 0,0 l/m 14,4 km/h (3 Bft) O 80 2 min 0,000 mm 0,5 UV-I 294 W/m -2,8 C -7,0 C 20,9 km/h (4 Bft) 94,55 %
14.02.2017 09:26 -0,3 C 83 % 1031,4 hPa 0,0 l/m 17,6 km/h (3 Bft) O-NO 62 2 min 0,000 mm 0,5 UV-I 299 W/m -2,8 C -8,8 C 29,0 km/h (5 Bft) 95,83 %
14.02.2017 09:28 -0,3 C 83 % 1031,3 hPa 0,0 l/m 23,3 km/h (4 Bft) O 84 2 min 0,000 mm 0,5 UV-I 302 W/m -2,8 C -11,5 C 29,0 km/h (5 Bft) 97,56 %
14.02.2017 09:30 -0,2 C 82 % 1031,3 hPa 0,0 l/m 25,3 km/h (4 Bft) O-NO 66 2 min 0,000 mm 0,5 UV-I 305 W/m -2,9 C -12,1 C 30,6 km/h (5 Bft) 91,07 %
14.02.2017 09:32 -0,2 C 82 % 1031,4 hPa 0,0 l/m 22,1 km/h (4 Bft) O-NO 63 2 min 0,000 mm 0,5 UV-I 311 W/m -2,9 C -10,8 C 29,0 km/h (5 Bft) 97,56 %
14.02.2017 09:34 -0,1 C 83 % 1031,4 hPa 0,0 l/m 19,5 km/h (3 Bft) O-NO 76 2 min 0,000 mm 0,6 UV-I 316 W/m -2,6 C -9,5 C 27,4 km/h (4 Bft) 96,23 %
14.02.2017 09:36 -0,1 C 82 % 1031,4 hPa 0,0 l/m 22,7 km/h (4 Bft) O-NO 61 2 min 0,000 mm 0,6 UV-I 321 W/m -2,8 C -10,9 C 30,6 km/h (5 Bft) 91,43 %
14.02.2017 09:38 -0,1 C 82 % 1031,4 hPa 0,0 l/m 21,6 km/h (4 Bft) O-NO 62 2 min 0,000 mm 0,6 UV-I 325 W/m -2,8 C -10,5 C 30,6 km/h (5 Bft) 94,00 %
14.02.2017 09:40 -0,1 C 82 % 1031,4 hPa 0,0 l/m 20,1 km/h (4 Bft) O-NO 65 2 min 0,000 mm 0,6 UV-I 328 W/m -2,8 C -9,8 C 29,0 km/h (5 Bft) 94,00 %
14.02.2017 09:42 0,0 C 82 % 1031,5 hPa 0,0 l/m 18,3 km/h (3 Bft) O-NO 74 2 min 0,000 mm 0,6 UV-I 332 W/m -2,7 C -8,8 C 29,0 km/h (5 Bft) 90,24 %
14.02.2017 09:44 0,1 C 82 % 1031,6 hPa 0,0 l/m 14,6 km/h (3 Bft) O 79 2 min 0,000 mm 0,6 UV-I 335 W/m -2,6 C -6,6 C 20,9 km/h (4 Bft) 90,57 %
14.02.2017 09:46 0,1 C 82 % 1031,6 hPa 0,0 l/m 17,4 km/h (3 Bft) O-NO 75 2 min 0,000 mm 0,6 UV-I 338 W/m -2,6 C -8,2 C 22,5 km/h (4 Bft) 95,45 %
14.02.2017 09:48 0,1 C 82 % 1031,6 hPa 0,0 l/m 18,3 km/h (3 Bft) O 85 2 min 0,000 mm 0,7 UV-I 344 W/m -2,6 C -8,7 C 27,4 km/h (4 Bft) 96,15 %
14.02.2017 09:50 0,2 C 81 % 1031,6 hPa 0,0 l/m 19,5 km/h (3 Bft) O-NO 76 2 min 0,000 mm 0,7 UV-I 350 W/m -2,7 C -9,1 C 29,0 km/h (5 Bft) 92,68 %
14.02.2017 09:52 0,2 C 82 % 1031,6 hPa 0,0 l/m 19,0 km/h (3 Bft) O 80 2 min 0,000 mm 0,7 UV-I 353 W/m -2,5 C -8,9 C 24,1 km/h (4 Bft) 92,45 %
14.02.2017 09:54 0,2 C 81 % 1031,6 hPa 0,0 l/m 17,3 km/h (3 Bft) O-NO 66 2 min 0,000 mm 0,7 UV-I 358 W/m -2,7 C -8,0 C 22,5 km/h (4 Bft) 92,11 %
14.02.2017 09:56 0,3 C 81 % 1031,6 hPa 0,0 l/m 19,0 km/h (3 Bft) O-NO 59 2 min 0,000 mm 0,7 UV-I 362 W/m -2,6 C -8,8 C 27,4 km/h (4 Bft) 94,64 %
14.02.2017 09:58 0,3 C 82 % 1031,5 hPa 0,0 l/m 16,5 km/h (3 Bft) O-NO 76 2 min 0,000 mm 0,7 UV-I 369 W/m -2,4 C -7,5 C 24,1 km/h (4 Bft) 91,89 %
14.02.2017 10:00 0,4 C 82 % 1031,5 hPa 0,0 l/m 18,3 km/h (3 Bft) O-NO 59 2 min 0,127 mm 0,7 UV-I 372 W/m -2,3 C -8,3 C 27,4 km/h (4 Bft) 91,07 %
14.02.2017 10:02 0,4 C 81 % 1031,4 hPa 0,0 l/m 17,2 km/h (3 Bft) O-NO 69 2 min 0,000 mm 0,8 UV-I 377 W/m -2,5 C -7,7 C 20,9 km/h (4 Bft) 96,30 %
14.02.2017 10:04 0,4 C 81 % 1031,4 hPa 0,0 l/m 17,7 km/h (3 Bft) O-NO 57 2 min 0,000 mm 0,8 UV-I 379 W/m -2,5 C -8,0 C 22,5 km/h (4 Bft) 96,43 %
14.02.2017 10:06 0,5 C 81 % 1031,4 hPa 0,0 l/m 15,4 km/h (3 Bft) O-NO 71 2 min 0,000 mm 0,8 UV-I 384 W/m -2,4 C -6,6 C 24,1 km/h (4 Bft) 92,00 %
14.02.2017 10:08 0,6 C 81 % 1031,5 hPa 0,0 l/m 17,6 km/h (3 Bft) O-NO 69 2 min 0,000 mm 0,8 UV-I 387 W/m -2,3 C -7,7 C 25,7 km/h (4 Bft) 96,00 %
14.02.2017 10:10 0,6 C 80 % 1031,5 hPa 0,0 l/m 20,6 km/h (4 Bft) O 88 2 min 0,000 mm 0,8 UV-I 390 W/m -2,4 C -9,1 C 30,6 km/h (5 Bft) 98,11 %
14.02.2017 10:12 0,7 C 80 % 1031,5 hPa 0,0 l/m 23,4 km/h (4 Bft) NO 47 2 min 0,000 mm 0,8 UV-I 396 W/m -2,3 C -10,2 C 32,2 km/h (5 Bft) 92,11 %
14.02.2017 10:14 0,7 C 80 % 1031,5 hPa 0,0 l/m 20,0 km/h (4 Bft) O 93 2 min 0,000 mm 0,8 UV-I 399 W/m -2,3 C -8,7 C 27,4 km/h (4 Bft) 96,00 %
14.02.2017 10:16 0,7 C 80 % 1031,5 hPa 0,0 l/m 21,1 km/h (4 Bft) NO 40 2 min 0,000 mm 0,9 UV-I 404 W/m -2,3 C -9,2 C 29,0 km/h (5 Bft) 95,24 %
14.02.2017 10:18 0,7 C 80 % 1031,5 hPa 0,0 l/m 19,4 km/h (3 Bft) O-NO 59 2 min 0,000 mm 0,9 UV-I 409 W/m -2,3 C -8,4 C 25,7 km/h (4 Bft) 92,45 %
14.02.2017 10:20 0,7 C 80 % 1031,5 hPa 0,0 l/m 19,0 km/h (3 Bft) NO 42 2 min 0,000 mm 0,9 UV-I 411 W/m -2,3 C -8,3 C 25,7 km/h (4 Bft) 95,12 %
14.02.2017 10:22 0,8 C 80 % 1031,5 hPa 0,0 l/m 17,2 km/h (3 Bft) O-NO 72 2 min 0,000 mm 0,9 UV-I 416 W/m -2,2 C -7,2 C 22,5 km/h (4 Bft) 97,73 %
14.02.2017 10:24 0,8 C 80 % 1031,5 hPa 0,0 l/m 16,4 km/h (3 Bft) O-NO 65 2 min 0,000 mm 0,9 UV-I 416 W/m -2,2 C -6,8 C 20,9 km/h (4 Bft) 96,23 %
14.02.2017 10:26 0,8 C 80 % 1031,5 hPa 0,0 l/m 15,5 km/h (3 Bft) O-NO 60 2 min 0,000 mm 0,9 UV-I 420 W/m -2,2 C -6,3 C 20,9 km/h (4 Bft) 90,57 %
14.02.2017 10:28 0,9 C 80 % 1031,6 hPa 0,0 l/m 15,4 km/h (3 Bft) O-NO 68 2 min 0,000 mm 1,0 UV-I 425 W/m -2,2 C -6,1 C 19,3 km/h (3 Bft) 97,73 %
14.02.2017 10:30 0,9 C 80 % 1031,6 hPa 0,0 l/m 11,2 km/h (2 Bft) NO 46 2 min 0,000 mm 1,0 UV-I 429 W/m -2,2 C -3,4 C 17,7 km/h (3 Bft) 94,74 %
14.02.2017 10:32 1,1 C 80 % 1031,6 hPa 0,0 l/m 14,4 km/h (3 Bft) NO 53 2 min 0,000 mm 1,0 UV-I 432 W/m -2,0 C -5,3 C 19,3 km/h (3 Bft) 92,86 %
14.02.2017 10:34 1,1 C 79 % 1031,7 hPa 0,0 l/m 16,4 km/h (3 Bft) O 87 2 min 0,000 mm 1,0 UV-I 435 W/m -2,1 C -6,4 C 22,5 km/h (4 Bft) 97,56 %
14.02.2017 10:36 1,1 C 79 % 1031,7 hPa 0,0 l/m 16,8 km/h (3 Bft) O-SO 105 2 min 0,000 mm 1,0 UV-I 437 W/m -2,1 C -6,6 C 20,9 km/h (4 Bft) 95,74 %
14.02.2017 10:38 1,1 C 78 % 1031,8 hPa 0,0 l/m 21,3 km/h (4 Bft) O-NO 71 2 min 0,000 mm 1,0 UV-I 440 W/m -2,3 C -8,8 C 29,0 km/h (5 Bft) 90,00 %
14.02.2017 10:40 1,2 C 78 % 1031,8 hPa 0,0 l/m 21,0 km/h (4 Bft) O-NO 71 2 min 0,000 mm 1,0 UV-I 443 W/m -2,2 C -8,5 C 29,0 km/h (5 Bft) 95,52 %
14.02.2017 10:42 1,2 C 78 % 1031,8 hPa 0,0 l/m 18,9 km/h (3 Bft) O 81 2 min 0,000 mm 1,0 UV-I 445 W/m -2,2 C -7,6 C 24,1 km/h (4 Bft) 97,62 %
14.02.2017 10:44 1,2 C 79 % 1031,8 hPa 0,0 l/m 16,6 km/h (3 Bft) O 100 2 min 0,000 mm 1,1 UV-I 448 W/m -2,0 C -6,4 C 24,1 km/h (4 Bft) 90,91 %
14.02.2017 10:46 1,3 C 79 % 1031,9 hPa 0,0 l/m 15,8 km/h (3 Bft) O-NO 73 2 min 0,000 mm 1,1 UV-I 448 W/m -1,9 C -5,9 C 19,3 km/h (3 Bft) 95,24 %
14.02.2017 10:48 1,3 C 78 % 1031,9 hPa 0,0 l/m 13,2 km/h (3 Bft) O-NO 63 2 min 0,000 mm 1,1 UV-I 450 W/m -2,1 C -4,3 C 19,3 km/h (3 Bft) 96,23 %
14.02.2017 10:50 1,4 C 78 % 1031,9 hPa 0,0 l/m 14,6 km/h (3 Bft) NO 45 2 min 0,000 mm 1,1 UV-I 452 W/m -2,0 C -5,1 C 20,9 km/h (4 Bft) 91,49 %
14.02.2017 10:52 1,4 C 78 % 1031,9 hPa 0,0 l/m 11,1 km/h (2 Bft) O-NO 67 2 min 0,000 mm 1,1 UV-I 454 W/m -2,0 C -2,7 C 19,3 km/h (3 Bft) 91,43 %
14.02.2017 10:54 1,4 C 78 % 1031,8 hPa 0,0 l/m 12,2 km/h (2 Bft) NO 54 2 min 0,000 mm 1,1 UV-I 459 W/m -2,0 C -3,5 C 22,5 km/h (4 Bft) 95,45 %
14.02.2017 10:56 1,5 C 78 % 1031,8 hPa 0,0 l/m 11,7 km/h (2 Bft) O-NO 59 2 min 0,000 mm 1,1 UV-I 460 W/m -1,9 C -3,1 C 17,7 km/h (3 Bft) 94,34 %
14.02.2017 10:58 1,5 C 78 % 1031,8 hPa 0,0 l/m 12,8 km/h (3 Bft) O-NO 65 2 min 0,000 mm 1,1 UV-I 464 W/m -1,9 C -3,8 C 20,9 km/h (4 Bft) 92,86 %
14.02.2017 11:00 1,6 C 78 % 1031,8 hPa 0,0 l/m 14,4 km/h (3 Bft) O-NO 65 2 min 0,000 mm 1,2 UV-I 466 W/m -1,8 C -4,7 C 19,3 km/h (3 Bft) 94,74 %
14.02.2017 11:02 1,6 C 78 % 1031,7 hPa 0,0 l/m 16,4 km/h (3 Bft) NO 55 2 min 0,178 mm 1,2 UV-I 470 W/m -1,8 C -5,8 C 20,9 km/h (4 Bft) 94,64 %
14.02.2017 11:04 1,6 C 78 % 1031,7 hPa 0,0 l/m 17,0 km/h (3 Bft) O-NO 71 2 min 0,000 mm 1,2 UV-I 472 W/m -1,8 C -6,1 C 22,5 km/h (4 Bft) 87,80 %
14.02.2017 11:06 1,6 C 78 % 1031,7 hPa 0,0 l/m 14,2 km/h (3 Bft) O-NO 70 2 min 0,000 mm 1,2 UV-I 475 W/m -1,8 C -4,6 C 19,3 km/h (3 Bft) 95,74 %
14.02.2017 11:08 1,7 C 78 % 1031,7 hPa 0,0 l/m 13,7 km/h (3 Bft) NO 44 2 min 0,000 mm 1,2 UV-I 476 W/m -1,7 C -4,1 C 17,7 km/h (3 Bft) 95,74 %
14.02.2017 11:10 1,8 C 77 % 1031,7 hPa 0,0 l/m 10,3 km/h (2 Bft) O-NO 65 2 min 0,000 mm 1,2 UV-I 476 W/m -1,8 C -1,7 C 20,9 km/h (4 Bft) 89,36 %
14.02.2017 11:12 1,9 C 77 % 1031,8 hPa 0,0 l/m 9,4 km/h (2 Bft) O-NO 71 2 min 0,000 mm 1,2 UV-I 476 W/m -1,7 C -0,9 C 14,5 km/h (3 Bft) 92,68 %
14.02.2017 11:14 1,9 C 77 % 1031,8 hPa 0,0 l/m 8,9 km/h (2 Bft) NO 46 2 min 0,000 mm 1,2 UV-I 480 W/m -1,7 C -0,5 C 16,1 km/h (3 Bft) 92,45 %
14.02.2017 11:16 2,1 C 77 % 1031,9 hPa 0,0 l/m 10,1 km/h (2 Bft) O-NO 65 2 min 0,000 mm 1,2 UV-I 479 W/m -1,5 C -1,2 C 16,1 km/h (3 Bft) 90,24 %
14.02.2017 11:18 2,0 C 76 % 1031,9 hPa 0,0 l/m 11,1 km/h (2 Bft) O-NO 67 2 min 0,000 mm 1,2 UV-I 479 W/m -1,8 C -2,1 C 16,1 km/h (3 Bft) 94,34 %
14.02.2017 11:20 2,1 C 77 % 1031,9 hPa 0,0 l/m 10,1 km/h (2 Bft) NO 53 2 min 0,000 mm 1,2 UV-I 480 W/m -1,5 C -1,2 C 14,5 km/h (3 Bft) 91,49 %
14.02.2017 11:22 2,1 C 76 % 1031,8 hPa 0,0 l/m 11,5 km/h (2 Bft) NO 51 2 min 0,000 mm 1,3 UV-I 483 W/m -1,7 C -2,2 C 17,7 km/h (3 Bft) 97,87 %
14.02.2017 11:24 2,1 C 75 % 1031,7 hPa 0,0 l/m 12,2 km/h (2 Bft) O-NO 58 2 min 0,000 mm 1,3 UV-I 484 W/m -1,9 C -2,7 C 19,3 km/h (3 Bft) 93,62 %
14.02.2017 11:26 2,1 C 76 % 1031,7 hPa 0,0 l/m 13,6 km/h (3 Bft) NO 55 2 min 0,000 mm 1,3 UV-I 486 W/m -1,7 C -3,6 C 19,3 km/h (3 Bft) 98,00 %
14.02.2017 11:28 2,1 C 76 % 1031,7 hPa 0,0 l/m 15,5 km/h (3 Bft) O-NO 58 2 min 0,000 mm 1,3 UV-I 490 W/m -1,7 C -4,7 C 19,3 km/h (3 Bft) 93,33 %
14.02.2017 11:30 2,0 C 75 % 1031,6 hPa 0,0 l/m 18,3 km/h (3 Bft) NO 48 2 min 0,000 mm 1,3 UV-I 488 W/m -2,0 C -6,3 C 25,7 km/h (4 Bft) 92,45 %
14.02.2017 11:32 2,0 C 76 % 1031,7 hPa 0,0 l/m 17,2 km/h (3 Bft) O-NO 61 2 min 0,000 mm 1,3 UV-I 490 W/m -1,8 C -5,7 C 24,1 km/h (4 Bft) 96,43 %
14.02.2017 11:34 2,0 C 75 % 1031,7 hPa 0,0 l/m 18,1 km/h (3 Bft) NO 46 2 min 0,000 mm 1,3 UV-I 493 W/m -2,0 C -6,2 C 24,1 km/h (4 Bft) 94,00 %
14.02.2017 11:36 2,0 C 75 % 1031,7 hPa 0,0 l/m 15,8 km/h (3 Bft) NO 51 2 min 0,000 mm 1,3 UV-I 494 W/m -2,0 C -5,0 C 24,1 km/h (4 Bft) 94,74 %
14.02.2017 11:38 2,1 C 75 % 1031,7 hPa 0,0 l/m 12,8 km/h (3 Bft) O 86 2 min 0,000 mm 1,3 UV-I 498 W/m -1,9 C -3,1 C 20,9 km/h (4 Bft) 95,74 %
14.02.2017 11:40 2,1 C 76 % 1031,6 hPa 0,0 l/m 13,1 km/h (3 Bft) O-NO 65 2 min 0,000 mm 1,3 UV-I 497 W/m -1,7 C -3,3 C 17,7 km/h (3 Bft) 100,00 %
14.02.2017 11:42 2,2 C 75 % 1031,7 hPa 0,0 l/m 15,1 km/h (3 Bft) O-NO 67 2 min 0,000 mm 1,3 UV-I 499 W/m -1,8 C -4,4 C 20,9 km/h (4 Bft) 97,87 %
14.02.2017 11:44 2,2 C 75 % 1031,7 hPa 0,0 l/m 14,6 km/h (3 Bft) NO 50 2 min 0,000 mm 1,3 UV-I 499 W/m -1,8 C -4,1 C 19,3 km/h (3 Bft) 94,34 %
14.02.2017 11:46 2,2 C 76 % 1031,7 hPa 0,0 l/m 13,9 km/h (3 Bft) NO 53 2 min 0,000 mm 1,3 UV-I 501 W/m -1,6 C -3,7 C 17,7 km/h (3 Bft) 92,68 %
14.02.2017 11:48 2,2 C 75 % 1031,7 hPa 0,0 l/m 13,2 km/h (3 Bft) O-NO 64 2 min 0,000 mm 1,4 UV-I 501 W/m -1,8 C -3,2 C 19,3 km/h (3 Bft) 96,23 %
14.02.2017 11:50 2,3 C 76 % 1031,6 hPa 0,0 l/m 12,9 km/h (3 Bft) NO 40 2 min 0,000 mm 1,4 UV-I 501 W/m -1,5 C -2,9 C 19,3 km/h (3 Bft) 100,00 %
14.02.2017 11:52 2,5 C 75 % 1031,6 hPa 0,0 l/m 13,8 km/h (3 Bft) NO 51 2 min 0,000 mm 1,4 UV-I 503 W/m -1,5 C -3,3 C 19,3 km/h (3 Bft) 100,00 %
14.02.2017 11:54 2,6 C 74 % 1031,6 hPa 0,0 l/m 13,8 km/h (3 Bft) NO 52 2 min 0,000 mm 1,4 UV-I 507 W/m -1,6 C -3,1 C 19,3 km/h (3 Bft) 94,87 %
14.02.2017 11:56 2,6 C 74 % 1031,6 hPa 0,0 l/m 13,0 km/h (3 Bft) O 84 2 min 0,000 mm 1,4 UV-I 509 W/m -1,6 C -2,7 C 22,5 km/h (4 Bft) 98,11 %
14.02.2017 11:58 2,6 C 74 % 1031,6 hPa 0,0 l/m 14,0 km/h (3 Bft) O-NO 63 2 min 0,000 mm 1,4 UV-I 512 W/m -1,6 C -3,3 C 19,3 km/h (3 Bft) 97,56 %
14.02.2017 12:00 2,6 C 74 % 1031,6 hPa 0,0 l/m 14,1 km/h (3 Bft) O-NO 59 2 min 0,203 mm 1,4 UV-I 510 W/m -1,6 C -3,3 C 17,7 km/h (3 Bft) 100,00 %
14.02.2017 12:02 2,6 C 74 % 1031,6 hPa 0,0 l/m 14,5 km/h (3 Bft) O-NO 62 2 min 0,000 mm 1,4 UV-I 508 W/m -1,6 C -3,5 C 17,7 km/h (3 Bft) 94,55 %
14.02.2017 12:04 2,6 C 74 % 1031,6 hPa 0,0 l/m 16,6 km/h (3 Bft) O-NO 61 2 min 0,000 mm 1,4 UV-I 509 W/m -1,6 C -4,7 C 20,9 km/h (4 Bft) 98,00 %
14.02.2017 12:06 2,6 C 74 % 1031,7 hPa 0,0 l/m 13,7 km/h (3 Bft) O-NO 58 2 min 0,000 mm 1,4 UV-I 505 W/m -1,6 C -3,1 C 19,3 km/h (3 Bft) 97,44 %
14.02.2017 12:08 2,7 C 74 % 1031,6 hPa 0,0 l/m 16,6 km/h (3 Bft) O-NO 76 2 min 0,000 mm 1,4 UV-I 504 W/m -1,5 C -4,6 C 22,5 km/h (4 Bft) 96,43 %
14.02.2017 12:10 2,7 C 74 % 1031,6 hPa 0,0 l/m 16,1 km/h (3 Bft) O-NO 71 2 min 0,000 mm 1,4 UV-I 504 W/m -1,5 C -4,3 C 19,3 km/h (3 Bft) 96,21 %
14.02.2017 12:14 2,7 C 74 % 1031,6 hPa 0,0 l/m 14,1 km/h (3 Bft) N-NO 33 4 min 0,000 mm 1,4 UV-I 511 W/m -1,5 C -3,2 C 17,7 km/h (3 Bft) 95,56 %
14.02.2017 12:16 2,7 C 74 % 1031,6 hPa 0,0 l/m 12,6 km/h (3 Bft) NO 42 2 min 0,000 mm 1,4 UV-I 511 W/m -1,5 C -2,3 C 20,9 km/h (4 Bft) 95,12 %
14.02.2017 12:18 2,8 C 74 % 1031,6 hPa 0,0 l/m 13,3 km/h (3 Bft) O-NO 59 2 min 0,000 mm 1,4 UV-I 511 W/m -1,4 C -2,6 C 17,7 km/h (3 Bft) 94,34 %
14.02.2017 12:20 2,9 C 73 % 1031,7 hPa 0,0 l/m 13,5 km/h (3 Bft) O-NO 74 2 min 0,000 mm 1,4 UV-I 508 W/m -1,5 C -2,6 C 19,3 km/h (3 Bft) 95,74 %
14.02.2017 12:22 2,9 C 73 % 1031,7 hPa 0,0 l/m 15,7 km/h (3 Bft) O-NO 78 2 min 0,000 mm 1,4 UV-I 509 W/m -1,5 C -3,8 C 20,9 km/h (4 Bft) 95,12 %
14.02.2017 12:24 2,9 C 72 % 1031,6 hPa 0,0 l/m 13,9 km/h (3 Bft) O-NO 72 2 min 0,000 mm 1,4 UV-I 505 W/m -1,6 C -2,8 C 19,3 km/h (3 Bft) 98,11 %
14.02.2017 12:26 2,9 C 73 % 1031,8 hPa 0,0 l/m 13,4 km/h (3 Bft) O-NO 67 2 min 0,000 mm 1,4 UV-I 505 W/m -1,5 C -2,5 C 20,9 km/h (4 Bft) 94,74 %
14.02.2017 12:28 3,1 C 73 % 1031,7 hPa 0,0 l/m 13,7 km/h (3 Bft) O-NO 61 2 min 0,000 mm 1,4 UV-I 502 W/m -1,3 C -2,5 C 17,7 km/h (3 Bft) 94,34 %
14.02.2017 12:30 3,1 C 73 % 1031,7 hPa 0,0 l/m 13,1 km/h (3 Bft) O-NO 71 2 min 0,000 mm 1,4 UV-I 503 W/m -1,3 C -2,1 C 19,3 km/h (3 Bft) 97,56 %
14.02.2017 12:32 3,1 C 74 % 1031,7 hPa 0,0 l/m 14,3 km/h (3 Bft) O-NO 62 2 min 0,000 mm 1,4 UV-I 504 W/m -1,1 C -2,8 C 20,9 km/h (4 Bft) 96,43 %
14.02.2017 12:34 3,1 C 72 % 1031,8 hPa 0,0 l/m 14,1 km/h (3 Bft) O 84 2 min 0,000 mm 1,4 UV-I 504 W/m -1,4 C -2,7 C 17,7 km/h (3 Bft) 94,00 %
14.02.2017 12:36 3,1 C 73 % 1031,8 hPa 0,0 l/m 12,2 km/h (2 Bft) NO 51 2 min 0,000 mm 1,4 UV-I 502 W/m -1,3 C -1,6 C 17,7 km/h (3 Bft) 100,00 %
14.02.2017 12:38 3,2 C 74 % 1031,8 hPa 0,0 l/m 11,8 km/h (2 Bft) NO 43 2 min 0,000 mm 1,4 UV-I 502 W/m -1,0 C -1,2 C 16,1 km/h (3 Bft) 96,23 %
14.02.2017 12:40 3,2 C 73 % 1031,8 hPa 0,0 l/m 14,2 km/h (3 Bft) NO 55 2 min 0,000 mm 1,4 UV-I 500 W/m -1,2 C -2,7 C 19,3 km/h (3 Bft) 94,87 %
14.02.2017 12:42 3,3 C 73 % 1031,8 hPa 0,0 l/m 12,8 km/h (3 Bft) O-NO 78 2 min 0,000 mm 1,3 UV-I 496 W/m -1,1 C -1,7 C 20,9 km/h (4 Bft) 100,00 %
14.02.2017 12:44 3,3 C 73 % 1031,8 hPa 0,0 l/m 14,2 km/h (3 Bft) NO 54 2 min 0,000 mm 1,3 UV-I 498 W/m -1,1 C -2,5 C 19,3 km/h (3 Bft) 98,08 %
14.02.2017 12:46 3,3 C 73 % 1031,8 hPa 0,0 l/m 14,3 km/h (3 Bft) NO 36 2 min 0,000 mm 1,3 UV-I 498 W/m -1,1 C -2,6 C 17,7 km/h (3 Bft) 100,00 %
14.02.2017 12:48 3,3 C 73 % 1031,8 hPa 0,0 l/m 14,5 km/h (3 Bft) O-NO 66 2 min 0,000 mm 1,3 UV-I 497 W/m -1,1 C -2,7 C 19,3 km/h (3 Bft) 98,00 %
14.02.2017 12:50 3,3 C 72 % 1031,9 hPa 0,0 l/m 14,6 km/h (3 Bft) O-NO 69 2 min 0,000 mm 1,3 UV-I 500 W/m -1,3 C -2,8 C 20,9 km/h (4 Bft) 95,12 %
14.02.2017 12:52 3,3 C 72 % 1031,9 hPa 0,0 l/m 21,6 km/h (4 Bft) O 85 2 min 0,000 mm 1,3 UV-I 499 W/m -1,3 C -6,0 C 27,4 km/h (4 Bft) 96,23 %
14.02.2017 12:54 3,3 C 71 % 1031,9 hPa 0,0 l/m 20,7 km/h (4 Bft) O 89 2 min 0,000 mm 1,3 UV-I 495 W/m -1,4 C -5,7 C 29,0 km/h (5 Bft) 100,00 %
14.02.2017 12:56 3,3 C 73 % 1031,9 hPa 0,0 l/m 14,7 km/h (3 Bft) NO 40 2 min 0,000 mm 1,3 UV-I 492 W/m -1,1 C -2,8 C 19,3 km/h (3 Bft) 97,73 %
14.02.2017 12:58 3,4 C 72 % 1031,9 hPa 0,0 l/m 17,6 km/h (3 Bft) O-NO 65 2 min 0,000 mm 1,3 UV-I 490 W/m -1,2 C -4,2 C 24,1 km/h (4 Bft) 97,56 %
14.02.2017 13:00 3,4 C 72 % 1031,9 hPa 0,0 l/m 16,9 km/h (3 Bft) O-NO 68 2 min 0,204 mm 1,3 UV-I 491 W/m -1,2 C -3,8 C 29,0 km/h (5 Bft) 98,31 %
14.02.2017 13:02 3,4 C 72 % 1031,9 hPa 0,0 l/m 18,5 km/h (3 Bft) NO 55 2 min 0,000 mm 1,3 UV-I 487 W/m -1,2 C -4,6 C 25,7 km/h (4 Bft) 100,00 %
14.02.2017 13:04 3,4 C 72 % 1031,8 hPa 0,0 l/m 18,7 km/h (3 Bft) O 79 2 min 0,000 mm 1,3 UV-I 484 W/m -1,2 C -4,7 C 27,4 km/h (4 Bft) 96,43 %
14.02.2017 13:06 3,3 C 71 % 1031,9 hPa 0,0 l/m 16,6 km/h (3 Bft) O-NO 67 2 min 0,000 mm 1,3 UV-I 482 W/m -1,4 C -3,8 C 24,1 km/h (4 Bft) 97,73 %
14.02.2017 13:08 3,3 C 72 % 1031,8 hPa 0,0 l/m 15,8 km/h (3 Bft) O-NO 74 2 min 0,000 mm 1,3 UV-I 482 W/m -1,3 C -3,4 C 22,5 km/h (4 Bft) 100,00 %
14.02.2017 13:10 3,3 C 71 % 1031,9 hPa 0,0 l/m 16,0 km/h (3 Bft) O-NO 68 2 min 0,000 mm 1,3 UV-I 478 W/m -1,4 C -3,5 C 22,5 km/h (4 Bft) 98,57 %
14.02.2017 13:12 3,4 C 73 % 1031,9 hPa 0,0 l/m 16,0 km/h (3 Bft) NO 45 2 min 0,000 mm 1,3 UV-I 478 W/m -1,0 C -3,4 C 22,5 km/h (4 Bft) 97,56 %
14.02.2017 13:14 3,4 C 72 % 1031,9 hPa 0,0 l/m 15,9 km/h (3 Bft) O 80 2 min 0,000 mm 1,2 UV-I 474 W/m -1,2 C -3,3 C 20,9 km/h (4 Bft) 95,74 %
14.02.2017 13:16 3,5 C 72 % 1031,9 hPa 0,0 l/m 12,2 km/h (2 Bft) NO 49 2 min 0,000 mm 1,2 UV-I 473 W/m -1,1 C -1,1 C 17,7 km/h (3 Bft) 100,00 %
14.02.2017 13:18 3,6 C 72 % 1031,9 hPa 0,0 l/m 12,3 km/h (3 Bft) O-NO 59 2 min 0,000 mm 1,2 UV-I 469 W/m -1,0 C -1,0 C 20,9 km/h (4 Bft) 98,00 %
14.02.2017 13:20 3,6 C 72 % 1032,0 hPa 0,0 l/m 19,2 km/h (3 Bft) O 85 2 min 0,000 mm 1,2 UV-I 469 W/m -1,0 C -4,6 C 25,7 km/h (4 Bft) 100,00 %
14.02.2017 13:22 3,6 C 72 % 1032,0 hPa 0,0 l/m 18,8 km/h (3 Bft) O-NO 70 2 min 0,000 mm 1,2 UV-I 468 W/m -1,0 C -4,5 C 22,5 km/h (4 Bft) 96,36 %
14.02.2017 13:24 3,6 C 72 % 1032,0 hPa 0,0 l/m 19,2 km/h (3 Bft) O-SO 102 2 min 0,000 mm 1,2 UV-I 461 W/m -1,0 C -4,6 C 24,1 km/h (4 Bft) 100,00 %
14.02.2017 13:26 3,5 C 72 % 1032,0 hPa 0,0 l/m 14,8 km/h (3 Bft) O-NO 66 2 min 0,000 mm 1,2 UV-I 460 W/m -1,1 C -2,6 C 20,9 km/h (4 Bft) 97,44 %
14.02.2017 13:28 3,5 C 72 % 1032,0 hPa 0,0 l/m 16,6 km/h (3 Bft) O 84 2 min 0,000 mm 1,2 UV-I 457 W/m -1,1 C -3,6 C 20,9 km/h (4 Bft) 97,56 %
14.02.2017 13:30 3,6 C 73 % 1032,1 hPa 0,0 l/m 15,3 km/h (3 Bft) NO 53 2 min 0,000 mm 1,2 UV-I 458 W/m -0,8 C -2,8 C 20,9 km/h (4 Bft) 92,45 %
14.02.2017 13:32 3,6 C 73 % 1032,0 hPa 0,0 l/m 13,6 km/h (3 Bft) O-NO 63 2 min 0,000 mm 1,2 UV-I 453 W/m -0,8 C -1,8 C 19,3 km/h (3 Bft) 98,11 %
14.02.2017 13:34 3,7 C 73 % 1032,1 hPa 0,0 l/m 13,4 km/h (3 Bft) O-NO 65 2 min 0,000 mm 1,2 UV-I 453 W/m -0,7 C -1,6 C 17,7 km/h (3 Bft) 98,00 %
14.02.2017 13:36 3,7 C 73 % 1032,0 hPa 0,0 l/m 14,8 km/h (3 Bft) O-NO 76 2 min 0,000 mm 1,1 UV-I 450 W/m -0,7 C -2,4 C 19,3 km/h (3 Bft) 95,74 %
14.02.2017 13:38 3,7 C 72 % 1032,1 hPa 0,0 l/m 18,2 km/h (3 Bft) O-NO 71 2 min 0,000 mm 1,1 UV-I 446 W/m -0,9 C -4,1 C 27,4 km/h (4 Bft) 92,68 %
14.02.2017 13:40 3,7 C 73 % 1032,1 hPa 0,0 l/m 18,6 km/h (3 Bft) O-NO 60 2 min 0,000 mm 1,1 UV-I 445 W/m -0,7 C -4,3 C 24,1 km/h (4 Bft) 98,00 %
14.02.2017 13:42 3,6 C 72 % 1032,1 hPa 0,0 l/m 18,2 km/h (3 Bft) O 80 2 min 0,000 mm 1,1 UV-I 442 W/m -1,0 C -4,2 C 25,7 km/h (4 Bft) 92,68 %
14.02.2017 13:44 3,7 C 73 % 1032,1 hPa 0,0 l/m 17,1 km/h (3 Bft) O-SO 106 2 min 0,000 mm 1,1 UV-I 441 W/m -0,7 C -3,6 C 22,5 km/h (4 Bft) 96,23 %
14.02.2017 13:46 3,7 C 73 % 1032,1 hPa 0,0 l/m 15,7 km/h (3 Bft) O-NO 71 2 min 0,000 mm 1,1 UV-I 437 W/m -0,7 C -2,9 C 22,5 km/h (4 Bft) 97,73 %
14.02.2017 13:48 3,7 C 73 % 1032,1 hPa 0,0 l/m 17,3 km/h (3 Bft) O-SO 115 2 min 0,000 mm 1,1 UV-I 433 W/m -0,7 C -3,7 C 24,1 km/h (4 Bft) 91,49 %
14.02.2017 13:50 3,8 C 74 % 1032,1 hPa 0,0 l/m 12,7 km/h (3 Bft) O-NO 65 2 min 0,000 mm 1,1 UV-I 432 W/m -0,4 C -1,1 C 24,1 km/h (4 Bft) 96,00 %
14.02.2017 13:52 3,8 C 73 % 1032,0 hPa 0,0 l/m 13,6 km/h (3 Bft) O-NO 71 2 min 0,000 mm 1,0 UV-I 429 W/m -0,6 C -1,6 C 20,9 km/h (4 Bft) 97,87 %
14.02.2017 13:54 3,9 C 72 % 1032,1 hPa 0,0 l/m 15,4 km/h (3 Bft) O-NO 72 2 min 0,000 mm 1,0 UV-I 431 W/m -0,7 C -2,5 C 20,9 km/h (4 Bft) 95,12 %
14.02.2017 13:56 3,9 C 72 % 1032,1 hPa 0,0 l/m 13,4 km/h (3 Bft) O-NO 68 2 min 0,000 mm 1,0 UV-I 426 W/m -0,7 C -1,4 C 17,7 km/h (3 Bft) 92,00 %
14.02.2017 13:58 3,8 C 72 % 1032,1 hPa 0,0 l/m 17,3 km/h (3 Bft) O 86 2 min 0,000 mm 1,0 UV-I 419 W/m -0,8 C -3,5 C 22,5 km/h (4 Bft) 95,24 %
14.02.2017 14:00 3,8 C 72 % 1032,0 hPa 0,0 l/m 18,3 km/h (3 Bft) O-NO 75 2 min 0,203 mm 1,0 UV-I 419 W/m -0,8 C -4,0 C 27,4 km/h (4 Bft) 94,23 %
14.02.2017 14:02 3,7 C 72 % 1032,1 hPa 0,0 l/m 16,7 km/h (3 Bft) O-NO 76 2 min 0,000 mm 1,0 UV-I 414 W/m -0,9 C -3,4 C 25,7 km/h (4 Bft) 91,49 %
14.02.2017 14:04 3,7 C 72 % 1032,1 hPa 0,0 l/m 19,4 km/h (3 Bft) O-NO 64 2 min 0,000 mm 1,0 UV-I 410 W/m -0,9 C -4,6 C 24,1 km/h (4 Bft) 100,00 %
14.02.2017 14:06 3,7 C 72 % 1032,1 hPa 0,0 l/m 17,6 km/h (3 Bft) O-NO 71 2 min 0,000 mm 1,0 UV-I 409 W/m -0,9 C -3,8 C 22,5 km/h (4 Bft) 100,00 %
14.02.2017 14:08 3,7 C 73 % 1032,1 hPa 0,0 l/m 15,5 km/h (3 Bft) O 79 2 min 0,000 mm 0,9 UV-I 403 W/m -0,7 C -2,8 C 19,3 km/h (3 Bft) 100,00 %
14.02.2017 14:10 3,7 C 73 % 1032,2 hPa 0,0 l/m 16,4 km/h (3 Bft) O 94 2 min 0,000 mm 0,9 UV-I 406 W/m -0,7 C -3,2 C 25,7 km/h (4 Bft) 98,11 %
14.02.2017 14:12 3,7 C 73 % 1032,2 hPa 0,0 l/m 18,7 km/h (3 Bft) O-NO 69 2 min 0,000 mm 0,9 UV-I 404 W/m -0,7 C -4,3 C 25,7 km/h (4 Bft) 100,00 %
14.02.2017 14:14 3,7 C 73 % 1032,2 hPa 0,0 l/m 20,4 km/h (4 Bft) O-NO 65 2 min 0,000 mm 0,9 UV-I 398 W/m -0,7 C -5,0 C 25,7 km/h (4 Bft) 97,73 %
14.02.2017 14:16 3,7 C 73 % 1032,2 hPa 0,0 l/m 19,8 km/h (3 Bft) O 84 2 min 0,000 mm 0,9 UV-I 394 W/m -0,7 C -4,8 C 24,1 km/h (4 Bft) 96,43 %
14.02.2017 14:18 3,6 C 74 % 1032,2 hPa 0,0 l/m 18,6 km/h (3 Bft) O-NO 68 2 min 0,000 mm 0,9 UV-I 389 W/m -0,6 C -4,4 C 25,7 km/h (4 Bft) 100,00 %
14.02.2017 14:20 3,6 C 74 % 1032,2 hPa 0,0 l/m 18,0 km/h (3 Bft) O-NO 78 2 min 0,000 mm 0,8 UV-I 384 W/m -0,6 C -4,1 C 24,1 km/h (4 Bft) 92,45 %
14.02.2017 14:22 3,7 C 73 % 1032,2 hPa 0,0 l/m 18,0 km/h (3 Bft) O-NO 77 2 min 0,000 mm 0,8 UV-I 382 W/m -0,7 C -4,0 C 24,1 km/h (4 Bft) 96,00 %
14.02.2017 14:24 3,6 C 74 % 1032,3 hPa 0,0 l/m 17,4 km/h (3 Bft) O 94 2 min 0,000 mm 0,8 UV-I 372 W/m -0,6 C -3,8 C 24,1 km/h (4 Bft) 97,37 %
14.02.2017 14:26 3,6 C 74 % 1032,3 hPa 0,0 l/m 13,9 km/h (3 Bft) O 96 2 min 0,000 mm 0,8 UV-I 364 W/m -0,6 C -2,0 C 19,3 km/h (3 Bft) 98,00 %
14.02.2017 14:28 3,7 C 74 % 1032,3 hPa 0,0 l/m 14,5 km/h (3 Bft) NO 51 2 min 0,000 mm 0,8 UV-I 367 W/m -0,5 C -2,2 C 19,3 km/h (3 Bft) 100,00 %
14.02.2017 14:30 3,7 C 74 % 1032,3 hPa 0,0 l/m 17,9 km/h (3 Bft) O 80 2 min 0,000 mm 0,8 UV-I 359 W/m -0,5 C -3,9 C 24,1 km/h (4 Bft) 96,23 %
14.02.2017 14:32 3,7 C 73 % 1032,3 hPa 0,0 l/m 15,3 km/h (3 Bft) O-NO 62 2 min 0,000 mm 0,7 UV-I 352 W/m -0,7 C -2,7 C 20,9 km/h (4 Bft) 100,00 %
14.02.2017 14:34 3,7 C 74 % 1032,3 hPa 0,0 l/m 10,9 km/h (2 Bft) O-NO 66 2 min 0,000 mm 0,7 UV-I 351 W/m -0,5 C -0,0 C 16,1 km/h (3 Bft) 92,31 %
14.02.2017 14:36 3,8 C 74 % 1032,3 hPa 0,0 l/m 13,3 km/h (3 Bft) O-NO 77 2 min 0,000 mm 0,7 UV-I 350 W/m -0,4 C -1,4 C 17,7 km/h (3 Bft) 96,55 %
14.02.2017 14:38 3,8 C 74 % 1032,3 hPa 0,0 l/m 14,3 km/h (3 Bft) NO 54 2 min 0,000 mm 0,7 UV-I 346 W/m -0,4 C -2,0 C 20,9 km/h (4 Bft) 100,00 %
14.02.2017 14:40 3,8 C 73 % 1032,3 hPa 0,0 l/m 13,7 km/h (3 Bft) O-NO 59 2 min 0,000 mm 0,7 UV-I 342 W/m -0,6 C -1,7 C 19,3 km/h (3 Bft) 95,45 %
14.02.2017 14:42 3,8 C 74 % 1032,3 hPa 0,0 l/m 13,6 km/h (3 Bft) O-NO 73 2 min 0,000 mm 0,7 UV-I 334 W/m -0,4 C -1,6 C 17,7 km/h (3 Bft) 100,00 %
14.02.2017 14:44 3,9 C 73 % 1032,4 hPa 0,0 l/m 16,4 km/h (3 Bft) O-NO 64 2 min 0,000 mm 0,7 UV-I 330 W/m -0,5 C -3,0 C 22,5 km/h (4 Bft) 98,11 %
14.02.2017 14:46 3,9 C 73 % 1032,3 hPa 0,0 l/m 16,7 km/h (3 Bft) O 79 2 min 0,000 mm 0,7 UV-I 327 W/m -0,5 C -3,1 C 22,5 km/h (4 Bft) 89,47 %
14.02.2017 14:48 3,9 C 73 % 1032,3 hPa 0,0 l/m 18,5 km/h (3 Bft) NO 51 2 min 0,000 mm 0,6 UV-I 320 W/m -0,5 C -4,0 C 25,7 km/h (4 Bft) 98,21 %
14.02.2017 14:50 3,9 C 73 % 1032,3 hPa 0,0 l/m 20,6 km/h (4 Bft) O 100 2 min 0,000 mm 0,6 UV-I 314 W/m -0,5 C -4,8 C 27,4 km/h (4 Bft) 100,00 %
14.02.2017 14:52 3,9 C 73 % 1032,4 hPa 0,0 l/m 17,2 km/h (3 Bft) NO 51 2 min 0,000 mm 0,6 UV-I 311 W/m -0,5 C -3,4 C 24,1 km/h (4 Bft) 100,00 %
14.02.2017 14:54 3,9 C 74 % 1032,4 hPa 0,0 l/m 14,8 km/h (3 Bft) O 81 2 min 0,000 mm 0,6 UV-I 308 W/m -0,3 C -2,1 C 19,3 km/h (3 Bft) 100,00 %
14.02.2017 14:56 3,9 C 73 % 1032,3 hPa 0,0 l/m 17,1 km/h (3 Bft) NO 55 2 min 0,000 mm 0,6 UV-I 303 W/m -0,5 C -3,3 C 24,1 km/h (4 Bft) 97,56 %
14.02.2017 14:58 3,9 C 73 % 1032,4 hPa 0,0 l/m 17,5 km/h (3 Bft) O-NO 61 2 min 0,000 mm 0,6 UV-I 300 W/m -0,5 C -3,5 C 22,5 km/h (4 Bft) 96,00 %
14.02.2017 15:00 4,0 C 73 % 1032,4 hPa 0,0 l/m 16,2 km/h (3 Bft) O 89 2 min 0,178 mm 0,6 UV-I 294 W/m -0,4 C -2,8 C 20,9 km/h (4 Bft) 98,00 %
14.02.2017 15:02 4,1 C 74 % 1032,4 hPa 0,0 l/m 10,9 km/h (2 Bft) O 82 2 min 0,000 mm 0,5 UV-I 289 W/m -0,1 C 0,4 C 17,7 km/h (3 Bft) 94,29 %
14.02.2017 15:04 4,1 C 74 % 1032,4 hPa 0,0 l/m 10,4 km/h (2 Bft) O-NO 74 2 min 0,000 mm 0,5 UV-I 285 W/m -0,1 C 0,8 C 17,7 km/h (3 Bft) 95,12 %
14.02.2017 15:06 4,1 C 73 % 1032,4 hPa 0,0 l/m 13,0 km/h (3 Bft) O-NO 69 2 min 0,000 mm 0,5 UV-I 284 W/m -0,3 C -0,9 C 16,1 km/h (3 Bft) 96,23 %
14.02.2017 15:08 4,1 C 74 % 1032,5 hPa 0,0 l/m 10,9 km/h (2 Bft) O-NO 72 2 min 0,000 mm 0,5 UV-I 280 W/m -0,1 C 0,4 C 14,5 km/h (3 Bft) 96,43 %
14.02.2017 15:10 4,1 C 74 % 1032,4 hPa 0,0 l/m 10,1 km/h (2 Bft) O-NO 71 2 min 0,000 mm 0,5 UV-I 277 W/m -0,1 C 1,0 C 16,1 km/h (3 Bft) 94,74 %
14.02.2017 15:12 4,2 C 73 % 1032,5 hPa 0,0 l/m 14,4 km/h (3 Bft) O-NO 78 2 min 0,000 mm 0,5 UV-I 272 W/m -0,2 C -1,6 C 20,9 km/h (4 Bft) 96,61 %
14.02.2017 15:14 4,1 C 73 % 1032,5 hPa 0,0 l/m 14,8 km/h (3 Bft) O-NO 78 2 min 0,000 mm 0,5 UV-I 270 W/m -0,3 C -1,9 C 19,3 km/h (3 Bft) 95,12 %
14.02.2017 15:16 4,1 C 74 % 1032,4 hPa 0,0 l/m 16,3 km/h (3 Bft) O-NO 65 2 min 0,000 mm 0,5 UV-I 266 W/m -0,1 C -2,7 C 22,5 km/h (4 Bft) 92,00 %
14.02.2017 15:18 4,1 C 74 % 1032,5 hPa 0,0 l/m 16,0 km/h (3 Bft) NO 47 2 min 0,000 mm 0,4 UV-I 261 W/m -0,1 C -2,5 C 22,5 km/h (4 Bft) 93,18 %
14.02.2017 15:20 4,1 C 73 % 1032,5 hPa 0,0 l/m 13,9 km/h (3 Bft) O-NO 71 2 min 0,000 mm 0,0 UV-I 256 W/m -0,3 C -1,4 C 20,9 km/h (4 Bft) 97,62 %
14.02.2017 15:22 4,0 C 73 % 1032,5 hPa 0,0 l/m 13,8 km/h (3 Bft) O-NO 61 2 min 0,000 mm 0,0 UV-I 252 W/m -0,4 C -1,5 C 19,3 km/h (3 Bft) 94,55 %
14.02.2017 15:24 4,0 C 74 % 1032,5 hPa 0,0 l/m 9,3 km/h (2 Bft) O-NO 71 2 min 0,000 mm 0,0 UV-I 248 W/m -0,2 C 1,5 C 16,1 km/h (3 Bft) 94,87 %
14.02.2017 15:26 4,0 C 73 % 1032,5 hPa 0,0 l/m 13,7 km/h (3 Bft) O-NO 73 2 min 0,000 mm 0,0 UV-I 241 W/m -0,4 C -1,4 C 25,7 km/h (4 Bft) 96,23 %
14.02.2017 15:28 3,9 C 73 % 1032,6 hPa 0,0 l/m 16,5 km/h (3 Bft) O-NO 57 2 min 0,000 mm 0,0 UV-I 235 W/m -0,5 C -3,0 C 24,1 km/h (4 Bft) 90,91 %
14.02.2017 15:30 3,9 C 74 % 1032,5 hPa 0,0 l/m 16,2 km/h (3 Bft) O-NO 57 2 min 0,000 mm 0,0 UV-I 231 W/m -0,3 C -2,9 C 22,5 km/h (4 Bft) 95,74 %
14.02.2017 15:32 3,9 C 73 % 1032,5 hPa 0,0 l/m 19,3 km/h (3 Bft) O-NO 66 2 min 0,000 mm 0,0 UV-I 228 W/m -0,5 C -4,3 C 24,1 km/h (4 Bft) 98,11 %
14.02.2017 15:34 3,8 C 74 % 1032,5 hPa 0,0 l/m 14,6 km/h (3 Bft) O-NO 76 2 min 0,000 mm 0,0 UV-I 222 W/m -0,4 C -2,2 C 22,5 km/h (4 Bft) 92,11 %
14.02.2017 15:36 3,8 C 75 % 1032,5 hPa 0,0 l/m 16,4 km/h (3 Bft) O-NO 57 2 min 0,000 mm 0,0 UV-I 218 W/m -0,2 C -3,1 C 24,1 km/h (4 Bft) 97,87 %
14.02.2017 15:38 3,7 C 74 % 1032,5 hPa 0,0 l/m 17,6 km/h (3 Bft) O-NO 67 2 min 0,000 mm 0,0 UV-I 213 W/m -0,5 C -3,8 C 27,4 km/h (4 Bft) 95,12 %
14.02.2017 15:40 3,7 C 74 % 1032,5 hPa 0,0 l/m 16,1 km/h (3 Bft) NO 51 2 min 0,000 mm 0,0 UV-I 208 W/m -0,5 C -3,1 C 19,3 km/h (3 Bft) 96,55 %
14.02.2017 15:42 3,7 C 75 % 1032,5 hPa 0,0 l/m 16,1 km/h (3 Bft) NO 49 2 min 0,000 mm 0,0 UV-I 204 W/m -0,3 C -3,1 C 25,7 km/h (4 Bft) 92,59 %
14.02.2017 15:44 3,7 C 75 % 1032,5 hPa 0,0 l/m 18,0 km/h (3 Bft) O-NO 77 2 min 0,000 mm 0,0 UV-I 199 W/m -0,3 C -4,0 C 22,5 km/h (4 Bft) 97,01 %
14.02.2017 15:46 3,7 C 75 % 1032,5 hPa 0,0 l/m 14,7 km/h (3 Bft) O-NO 59 2 min 0,000 mm 0,0 UV-I 193 W/m -0,3 C -2,3 C 20,9 km/h (4 Bft) 93,62 %
14.02.2017 15:48 3,7 C 75 % 1032,6 hPa 0,0 l/m 16,6 km/h (3 Bft) O-NO 60 2 min 0,000 mm 0,0 UV-I 188 W/m -0,3 C -3,3 C 22,5 km/h (4 Bft) 100,00 %
14.02.2017 15:50 3,6 C 76 % 1032,5 hPa 0,0 l/m 9,9 km/h (2 Bft) O 82 2 min 0,000 mm 0,0 UV-I 183 W/m -0,2 C 0,6 C 16,1 km/h (3 Bft) 97,14 %
14.02.2017 15:52 3,6 C 76 % 1032,5 hPa 0,0 l/m 12,5 km/h (3 Bft) NO 49 2 min 0,000 mm 0,0 UV-I 176 W/m -0,2 C -1,2 C 17,7 km/h (3 Bft) 98,21 %
14.02.2017 15:54 3,6 C 76 % 1032,5 hPa 0,0 l/m 14,4 km/h (3 Bft) O-NO 59 2 min 0,000 mm 0,0 UV-I 172 W/m -0,2 C -2,3 C 24,1 km/h (4 Bft) 100,00 %
14.02.2017 15:56 3,6 C 75 % 1032,5 hPa 0,0 l/m 16,0 km/h (3 Bft) O-NO 74 2 min 0,000 mm 0,0 UV-I 169 W/m -0,4 C -3,1 C 29,0 km/h (5 Bft) 97,78 %
14.02.2017 15:58 3,6 C 75 % 1032,5 hPa 0,0 l/m 13,4 km/h (3 Bft) NO 44 2 min 0,000 mm 0,0 UV-I 165 W/m -0,4 C -1,7 C 24,1 km/h (4 Bft) 100,00 %
14.02.2017 16:00 3,6 C 75 % 1032,5 hPa 0,0 l/m 17,4 km/h (3 Bft) O-NO 78 2 min 0,127 mm 0,0 UV-I 159 W/m -0,4 C -3,8 C 24,1 km/h (4 Bft) 91,67 %
14.02.2017 16:02 3,6 C 75 % 1032,5 hPa 0,0 l/m 15,5 km/h (3 Bft) O-NO 59 2 min 0,000 mm 0,0 UV-I 156 W/m -0,4 C -2,9 C 22,5 km/h (4 Bft) 98,00 %
14.02.2017 16:06 3,4 C 76 % 1032,5 hPa 0,0 l/m 15,9 km/h (3 Bft) O 92 4 min 0,000 mm 0,0 UV-I 144 W/m -0,4 C -3,3 C 19,3 km/h (3 Bft) 100,00 %
14.02.2017 16:10 3,5 C 76 % 1032,4 hPa 0,0 l/m 14,5 km/h (3 Bft) O-NO 67 4 min 0,000 mm 0,0 UV-I 138 W/m -0,3 C -2,5 C 22,5 km/h (4 Bft) 95,61 %
14.02.2017 16:16 3,4 C 76 % 1032,4 hPa 0,0 l/m 15,9 km/h (3 Bft) O 96 6 min 0,000 mm 0,0 UV-I 121 W/m -0,4 C -3,3 C 19,3 km/h (3 Bft) 96,88 %
14.02.2017 16:18 3,4 C 77 % 1032,4 hPa 0,0 l/m 13,2 km/h (3 Bft) O-NO 71 2 min 0,000 mm 0,0 UV-I 117 W/m -0,2 C -1,8 C 17,7 km/h (3 Bft) 95,12 %
14.02.2017 16:20 3,3 C 77 % 1032,4 hPa 0,0 l/m 16,2 km/h (3 Bft) O-NO 68 2 min 0,000 mm 0,0 UV-I 113 W/m -0,3 C -3,6 C 20,9 km/h (4 Bft) 100,00 %
14.02.2017 16:22 3,3 C 77 % 1032,4 hPa 0,0 l/m 12,8 km/h (3 Bft) O-NO 77 2 min 0,000 mm 0,0 UV-I 109 W/m -0,3 C -1,7 C 17,7 km/h (3 Bft) 95,74 %
14.02.2017 16:24 3,2 C 77 % 1032,4 hPa 0,0 l/m 13,5 km/h (3 Bft) O 80 2 min 0,000 mm 0,0 UV-I 104 W/m -0,4 C -2,3 C 19,3 km/h (3 Bft) 100,00 %
14.02.2017 16:26 3,2 C 77 % 1032,4 hPa 0,0 l/m 14,6 km/h (3 Bft) O 83 2 min 0,000 mm 0,0 UV-I 100 W/m -0,4 C -2,9 C 20,9 km/h (4 Bft) 98,11 %
14.02.2017 16:28 3,2 C 78 % 1032,4 hPa 0,0 l/m 13,3 km/h (3 Bft) O 84 2 min 0,000 mm 0,0 UV-I 97 W/m -0,3 C -2,1 C 19,3 km/h (3 Bft) 100,00 %
14.02.2017 16:30 3,2 C 78 % 1032,4 hPa 0,0 l/m 17,7 km/h (3 Bft) O 81 2 min 0,000 mm 0,0 UV-I 92 W/m -0,3 C -4,5 C 24,1 km/h (4 Bft) 100,00 %
14.02.2017 16:32 3,2 C 77 % 1032,4 hPa 0,0 l/m 17,4 km/h (3 Bft) O-NO 71 2 min 0,000 mm 0,0 UV-I 88 W/m -0,4 C -4,3 C 24,1 km/h (4 Bft) 97,73 %
14.02.2017 16:34 3,2 C 77 % 1032,4 hPa 0,0 l/m 14,4 km/h (3 Bft) O-NO 71 2 min 0,000 mm 0,0 UV-I 84 W/m -0,4 C -2,8 C 20,9 km/h (4 Bft) 97,56 %
14.02.2017 16:36 3,2 C 77 % 1032,4 hPa 0,0 l/m 19,6 km/h (3 Bft) O-NO 58 2 min 0,000 mm 0,0 UV-I 80 W/m -0,4 C -5,3 C 29,0 km/h (5 Bft) 98,00 %
14.02.2017 16:38 3,2 C 77 % 1032,5 hPa 0,0 l/m 16,6 km/h (3 Bft) O-NO 74 2 min 0,000 mm 0,0 UV-I 74 W/m -0,4 C -3,9 C 24,1 km/h (4 Bft) 100,00 %
14.02.2017 16:40 3,2 C 77 % 1032,5 hPa 0,0 l/m 15,5 km/h (3 Bft) O 80 2 min 0,000 mm 0,0 UV-I 70 W/m -0,4 C -3,4 C 22,5 km/h (4 Bft) 98,21 %
14.02.2017 16:42 3,1 C 78 % 1032,5 hPa 0,0 l/m 12,1 km/h (2 Bft) NO 52 2 min 0,000 mm 0,0 UV-I 66 W/m -0,4 C -1,5 C 19,3 km/h (3 Bft) 100,00 %
14.02.2017 16:44 3,1 C 78 % 1032,6 hPa 0,0 l/m 10,6 km/h (2 Bft) O 84 2 min 0,000 mm 0,0 UV-I 62 W/m -0,4 C -0,5 C 14,5 km/h (3 Bft) 98,11 %
14.02.2017 16:46 3,0 C 78 % 1032,6 hPa 0,0 l/m 14,2 km/h (3 Bft) O-NO 65 2 min 0,000 mm 0,0 UV-I 57 W/m -0,5 C -2,9 C 22,5 km/h (4 Bft) 100,00 %
14.02.2017 16:48 2,9 C 78 % 1032,6 hPa 0,0 l/m 14,1 km/h (3 Bft) NO 55 2 min 0,000 mm 0,0 UV-I 53 W/m -0,5 C -3,0 C 19,3 km/h (3 Bft) 97,62 %
14.02.2017 16:50 2,9 C 78 % 1032,6 hPa 0,0 l/m 11,7 km/h (2 Bft) O 82 2 min 0,000 mm 0,0 UV-I 49 W/m -0,5 C -1,5 C 20,9 km/h (4 Bft) 98,18 %
14.02.2017 16:52 2,9 C 78 % 1032,6 hPa 0,0 l/m 11,6 km/h (2 Bft) O-NO 69 2 min 0,000 mm 0,0 UV-I 46 W/m -0,5 C -1,4 C 17,7 km/h (3 Bft) 100,00 %
14.02.2017 16:54 2,9 C 78 % 1032,6 hPa 0,0 l/m 13,2 km/h (3 Bft) O-NO 71 2 min 0,000 mm 0,0 UV-I 43 W/m -0,5 C -2,4 C 17,7 km/h (3 Bft) 97,62 %
14.02.2017 16:56 2,9 C 78 % 1032,6 hPa 0,0 l/m 13,7 km/h (3 Bft) NO 55 2 min 0,000 mm 0,0 UV-I 39 W/m -0,5 C -2,7 C 19,3 km/h (3 Bft) 98,00 %
14.02.2017 16:58 2,8 C 79 % 1032,6 hPa 0,0 l/m 17,0 km/h (3 Bft) O 90 2 min 0,000 mm 0,0 UV-I 37 W/m -0,5 C -4,6 C 22,5 km/h (4 Bft) 97,73 %
14.02.2017 17:00 2,8 C 78 % 1032,7 hPa 0,0 l/m 15,4 km/h (3 Bft) O-NO 66 2 min 0,050 mm 0,0 UV-I 33 W/m -0,6 C -3,8 C 20,9 km/h (4 Bft) 100,00 %
14.02.2017 17:02 2,8 C 78 % 1032,6 hPa 0,0 l/m 14,5 km/h (3 Bft) O-NO 63 2 min 0,000 mm 0,0 UV-I 30 W/m -0,6 C -3,3 C 20,9 km/h (4 Bft) 95,45 %
14.02.2017 17:04 2,8 C 79 % 1032,6 hPa 0,0 l/m 15,2 km/h (3 Bft) O-NO 75 2 min 0,000 mm 0,0 UV-I 27 W/m -0,5 C -3,7 C 22,5 km/h (4 Bft) 98,31 %
14.02.2017 17:06 2,8 C 79 % 1032,6 hPa 0,0 l/m 15,6 km/h (3 Bft) O 83 2 min 0,000 mm 0,0 UV-I 25 W/m -0,5 C -3,9 C 25,7 km/h (4 Bft) 100,00 %
14.02.2017 17:08 2,7 C 79 % 1032,6 hPa 0,0 l/m 16,1 km/h (3 Bft) O 90 2 min 0,000 mm 0,0 UV-I 22 W/m -0,6 C -4,3 C 22,5 km/h (4 Bft) 98,00 %
14.02.2017 17:10 2,7 C 79 % 1032,6 hPa 0,0 l/m 17,5 km/h (3 Bft) O-NO 61 2 min 0,000 mm 0,0 UV-I 19 W/m -0,6 C -5,0 C 20,9 km/h (4 Bft) 98,11 %
14.02.2017 17:12 2,7 C 79 % 1032,6 hPa 0,0 l/m 15,2 km/h (3 Bft) O-NO 62 2 min 0,000 mm 0,0 UV-I 18 W/m -0,6 C -3,8 C 24,1 km/h (4 Bft) 95,12 %
14.02.2017 17:14 2,7 C 79 % 1032,6 hPa 0,0 l/m 18,5 km/h (3 Bft) O 96 0 min 0,000 mm 0,0 UV-I 15 W/m -0,6 C -5,5 C 25,7 km/h (4 Bft) 100,00 %
14.02.2017 17:16 2,7 C 79 % 1032,6 hPa 0,0 l/m 17,0 km/h (3 Bft) NO 54 0 min 0,000 mm 0,0 UV-I 13 W/m -0,6 C -4,8 C 24,1 km/h (4 Bft) 96,00 %
14.02.2017 17:18 2,7 C 79 % 1032,6 hPa 0,0 l/m 15,8 km/h (3 Bft) O 84 0 min 0,000 mm 0,0 UV-I 12 W/m -0,6 C -4,1 C 24,1 km/h (4 Bft) 100,00 %
14.02.2017 17:20 2,6 C 79 % 1032,7 hPa 0,0 l/m 15,2 km/h (3 Bft) O 86 0 min 0,000 mm 0,0 UV-I 11 W/m -0,7 C -3,9 C 24,1 km/h (4 Bft) 100,00 %
14.02.2017 17:22 2,6 C 79 % 1032,7 hPa 0,0 l/m 18,0 km/h (3 Bft) NO 56 0 min 0,000 mm 0,0 UV-I 10 W/m -0,7 C -5,4 C 25,7 km/h (4 Bft) 97,37 %
14.02.2017 17:24 2,6 C 79 % 1032,7 hPa 0,0 l/m 15,5 km/h (3 Bft) NO 50 0 min 0,000 mm 0,0 UV-I 9 W/m -0,7 C -4,1 C 20,9 km/h (4 Bft) 100,00 %
14.02.2017 17:26 2,6 C 79 % 1032,8 hPa 0,0 l/m 16,8 km/h (3 Bft) O 101 0 min 0,000 mm 0,0 UV-I 8 W/m -0,7 C -4,8 C 22,5 km/h (4 Bft) 97,14 %
14.02.2017 17:28 2,6 C 79 % 1032,7 hPa 0,0 l/m 14,8 km/h (3 Bft) O-NO 61 0 min 0,000 mm 0,0 UV-I 7 W/m -0,7 C -3,7 C 20,9 km/h (4 Bft) 100,00 %
14.02.2017 17:30 2,6 C 79 % 1032,8 hPa 0,0 l/m 16,1 km/h (3 Bft) O-NO 76 0 min 0,000 mm 0,0 UV-I 7 W/m -0,7 C -4,4 C 24,1 km/h (4 Bft) 98,18 %
14.02.2017 17:32 2,6 C 79 % 1032,8 hPa 0,0 l/m 15,7 km/h (3 Bft) O-NO 68 0 min 0,000 mm 0,0 UV-I 6 W/m -0,7 C -4,2 C 27,4 km/h (4 Bft) 94,87 %
14.02.2017 17:34 2,6 C 79 % 1032,8 hPa 0,0 l/m 17,4 km/h (3 Bft) O 85 0 min 0,000 mm 0,0 UV-I 5 W/m -0,7 C -5,1 C 24,1 km/h (4 Bft) 97,22 %
14.02.2017 17:36 2,6 C 79 % 1032,9 hPa 0,0 l/m 16,1 km/h (3 Bft) O-NO 78 0 min 0,000 mm 0,0 UV-I 5 W/m -0,7 C -4,4 C 25,7 km/h (4 Bft) 96,77 %
14.02.2017 17:38 2,6 C 79 % 1032,9 hPa 0,0 l/m 16,7 km/h (3 Bft) O 88 0 min 0,000 mm 0,0 UV-I 5 W/m -0,7 C -4,7 C 24,1 km/h (4 Bft) 98,00 %
14.02.2017 17:40 2,6 C 79 % 1032,9 hPa 0,0 l/m 18,1 km/h (3 Bft) NO 53 0 min 0,000 mm 0,0 UV-I 2 W/m -0,7 C -5,4 C 24,1 km/h (4 Bft) 94,00 %
14.02.2017 17:42 2,6 C 79 % 1033,0 hPa 0,0 l/m 17,1 km/h (3 Bft) O 84 0 min 0,000 mm 0,0 UV-I 0 W/m -0,7 C -4,9 C 22,5 km/h (4 Bft) 87,80 %
14.02.2017 17:44 2,6 C 79 % 1033,0 hPa 0,0 l/m 17,2 km/h (3 Bft) O-NO 77 0 min 0,000 mm 0,0 UV-I 0 W/m -0,7 C -5,0 C 20,9 km/h (4 Bft) 94,00 %
14.02.2017 17:46 2,6 C 79 % 1033,1 hPa 0,0 l/m 16,7 km/h (3 Bft) O-NO 74 0 min 0,000 mm 0,0 UV-I 0 W/m -0,7 C -4,7 C 25,7 km/h (4 Bft) 95,45 %
14.02.2017 17:48 2,5 C 80 % 1033,0 hPa 0,0 l/m 14,5 km/h (3 Bft) O-NO 68 0 min 0,000 mm 0,0 UV-I 0 W/m -0,6 C -3,7 C 25,7 km/h (4 Bft) 94,34 %
14.02.2017 17:50 2,4 C 80 % 1033,1 hPa 0,0 l/m 15,1 km/h (3 Bft) O-SO 113 0 min 0,000 mm 0,0 UV-I 0 W/m -0,7 C -4,1 C 20,9 km/h (4 Bft) 97,37 %
14.02.2017 17:52 2,4 C 80 % 1033,0 hPa 0,0 l/m 16,0 km/h (3 Bft) O-NO 77 0 min 0,000 mm 0,0 UV-I 0 W/m -0,7 C -4,6 C 24,1 km/h (4 Bft) 98,11 %
14.02.2017 17:54 2,4 C 80 % 1033,0 hPa 0,0 l/m 15,4 km/h (3 Bft) O-NO 74 0 min 0,000 mm 0,0 UV-I 0 W/m -0,7 C -4,3 C 20,9 km/h (4 Bft) 94,00 %
14.02.2017 17:56 2,4 C 80 % 1033,1 hPa 0,0 l/m 11,1 km/h (2 Bft) O-NO 57 0 min 0,000 mm 0,0 UV-I 0 W/m -0,7 C -1,6 C 19,3 km/h (3 Bft) 87,18 %
14.02.2017 17:58 2,4 C 80 % 1033,0 hPa 0,0 l/m 12,0 km/h (2 Bft) O-SO 107 0 min 0,000 mm 0,0 UV-I 0 W/m -0,7 C -2,2 C 19,3 km/h (3 Bft) 95,45 %
14.02.2017 18:00 2,3 C 80 % 1033,0 hPa 0,0 l/m 14,6 km/h (3 Bft) O-SO 114 0 min 0,026 mm 0,0 UV-I 0 W/m -0,8 C -4,0 C 24,1 km/h (4 Bft) 95,45 %
14.02.2017 18:02 2,3 C 80 % 1033,0 hPa 0,0 l/m 13,2 km/h (3 Bft) O 94 0 min 0,000 mm 0,0 UV-I 0 W/m -0,8 C -3,1 C 19,3 km/h (3 Bft) 94,64 %
14.02.2017 18:04 2,4 C 80 % 1033,0 hPa 0,0 l/m 10,7 km/h (2 Bft) O 80 0 min 0,000 mm 0,0 UV-I 0 W/m -0,7 C -1,3 C 17,7 km/h (3 Bft) 95,12 %
14.02.2017 18:06 2,3 C 80 % 1033,0 hPa 0,0 l/m 16,3 km/h (3 Bft) O-NO 74 0 min 0,000 mm 0,0 UV-I 0 W/m -0,8 C -4,9 C 22,5 km/h (4 Bft) 90,00 %
14.02.2017 18:08 2,4 C 81 % 1033,0 hPa 0,0 l/m 16,6 km/h (3 Bft) O-NO 76 0 min 0,000 mm 0,0 UV-I 0 W/m -0,5 C -4,9 C 22,5 km/h (4 Bft) 93,62 %
14.02.2017 18:10 2,3 C 81 % 1033,0 hPa 0,0 l/m 16,5 km/h (3 Bft) O-NO 76 0 min 0,000 mm 0,0 UV-I 0 W/m -0,6 C -5,0 C 25,7 km/h (4 Bft) 92,45 %
14.02.2017 18:12 2,3 C 81 % 1033,0 hPa 0,0 l/m 16,9 km/h (3 Bft) O-NO 69 0 min 0,000 mm 0,0 UV-I 0 W/m -0,6 C -5,2 C 22,5 km/h (4 Bft) 93,02 %
14.02.2017 18:14 2,3 C 81 % 1033,0 hPa 0,0 l/m 15,9 km/h (3 Bft) O-SO 105 0 min 0,000 mm 0,0 UV-I 0 W/m -0,6 C -4,7 C 22,5 km/h (4 Bft) 87,80 %
14.02.2017 18:16 2,3 C 81 % 1033,0 hPa 0,0 l/m 14,3 km/h (3 Bft) O 82 0 min 0,000 mm 0,0 UV-I 0 W/m -0,6 C -3,8 C 22,5 km/h (4 Bft) 100,00 %
14.02.2017 18:18 2,3 C 81 % 1033,1 hPa 0,0 l/m 12,3 km/h (3 Bft) O-NO 69 0 min 0,000 mm 0,0 UV-I 0 W/m -0,6 C -2,6 C 20,9 km/h (4 Bft) 97,56 %
14.02.2017 18:20 2,3 C 81 % 1033,2 hPa 0,0 l/m 16,3 km/h (3 Bft) O 86 0 min 0,000 mm 0,0 UV-I 0 W/m -0,6 C -4,9 C 24,1 km/h (4 Bft) 91,49 %
14.02.2017 18:22 2,3 C 81 % 1033,2 hPa 0,0 l/m 14,6 km/h (3 Bft) O 94 0 min 0,000 mm 0,0 UV-I 0 W/m -0,6 C -4,0 C 20,9 km/h (4 Bft) 95,74 %
14.02.2017 18:24 2,3 C 81 % 1033,1 hPa 0,0 l/m 10,5 km/h (2 Bft) O 84 0 min 0,000 mm 0,0 UV-I 0 W/m -0,6 C -1,3 C 14,5 km/h (3 Bft) 97,56 %
14.02.2017 18:26 2,3 C 81 % 1033,1 hPa 0,0 l/m 14,0 km/h (3 Bft) O 85 0 min 0,000 mm 0,0 UV-I 0 W/m -0,6 C -3,6 C 24,1 km/h (4 Bft) 100,00 %
14.02.2017 18:28 2,3 C 81 % 1033,2 hPa 0,0 l/m 15,1 km/h (3 Bft) O 81 0 min 0,000 mm 0,0 UV-I 0 W/m -0,6 C -4,3 C 24,1 km/h (4 Bft) 96,23 %
14.02.2017 18:30 2,3 C 81 % 1033,2 hPa 0,0 l/m 17,5 km/h (3 Bft) NO 50 0 min 0,000 mm 0,0 UV-I 0 W/m -0,6 C -5,5 C 25,7 km/h (4 Bft) 96,43 %
14.02.2017 18:32 2,3 C 81 % 1033,2 hPa 0,0 l/m 14,3 km/h (3 Bft) O-NO 73 0 min 0,000 mm 0,0 UV-I 0 W/m -0,6 C -3,8 C 20,9 km/h (4 Bft) 94,29 %
14.02.2017 18:34 2,3 C 81 % 1033,2 hPa 0,0 l/m 16,1 km/h (3 Bft) O-NO 76 0 min 0,000 mm 0,0 UV-I 0 W/m -0,6 C -4,8 C 24,1 km/h (4 Bft) 94,64 %
14.02.2017 18:36 2,4 C 81 % 1033,2 hPa 0,0 l/m 15,2 km/h (3 Bft) O 84 0 min 0,000 mm 0,0 UV-I 0 W/m -0,5 C -4,2 C 22,5 km/h (4 Bft) 93,62 %
14.02.2017 18:38 2,4 C 81 % 1033,2 hPa 0,0 l/m 16,5 km/h (3 Bft) O 90 0 min 0,000 mm 0,0 UV-I 0 W/m -0,5 C -4,9 C 25,7 km/h (4 Bft) 95,12 %
14.02.2017 18:40 2,3 C 81 % 1033,2 hPa 0,0 l/m 14,6 km/h (3 Bft) NO 53 0 min 0,000 mm 0,0 UV-I 0 W/m -0,6 C -4,0 C 19,3 km/h (3 Bft) 96,67 %
14.02.2017 18:42 2,3 C 81 % 1033,2 hPa 0,0 l/m 12,1 km/h (2 Bft) O 80 0 min 0,000 mm 0,0 UV-I 0 W/m -0,6 C -2,4 C 17,7 km/h (3 Bft) 96,88 %
14.02.2017 18:44 2,3 C 81 % 1033,2 hPa 0,0 l/m 13,8 km/h (3 Bft) O-NO 67 0 min 0,000 mm 0,0 UV-I 0 W/m -0,6 C -3,5 C 22,5 km/h (4 Bft) 100,00 %
14.02.2017 18:46 2,3 C 81 % 1033,1 hPa 0,0 l/m 16,4 km/h (3 Bft) O 82 0 min 0,000 mm 0,0 UV-I 0 W/m -0,6 C -5,0 C 20,9 km/h (4 Bft) 100,00 %
14.02.2017 18:48 2,3 C 81 % 1033,2 hPa 0,0 l/m 15,7 km/h (3 Bft) O-NO 74 0 min 0,000 mm 0,0 UV-I 0 W/m -0,6 C -4,6 C 22,5 km/h (4 Bft) 98,11 %
14.02.2017 18:50 2,3 C 81 % 1033,3 hPa 0,0 l/m 15,5 km/h (3 Bft) O 88 0 min 0,000 mm 0,0 UV-I 0 W/m -0,6 C -4,5 C 24,1 km/h (4 Bft) 100,00 %
14.02.2017 18:52 2,3 C 81 % 1033,3 hPa 0,0 l/m 12,8 km/h (3 Bft) O-NO 64 0 min 0,000 mm 0,0 UV-I 0 W/m -0,6 C -2,9 C 20,9 km/h (4 Bft) 100,00 %
14.02.2017 18:54 2,3 C 81 % 1033,3 hPa 0,0 l/m 14,0 km/h (3 Bft) O-NO 68 0 min 0,000 mm 0,0 UV-I 0 W/m -0,6 C -3,6 C 20,9 km/h (4 Bft) 90,00 %
14.02.2017 18:56 2,2 C 81 % 1033,3 hPa 0,0 l/m 13,0 km/h (3 Bft) O-NO 77 0 min 0,000 mm 0,0 UV-I 0 W/m -0,7 C -3,1 C 19,3 km/h (3 Bft) 97,14 %
14.02.2017 18:58 2,2 C 82 % 1033,3 hPa 0,0 l/m 11,9 km/h (2 Bft) NO 56 0 min 0,000 mm 0,0 UV-I 0 W/m -0,5 C -2,4 C 19,3 km/h (3 Bft) 94,00 %
14.02.2017 19:00 2,1 C 82 % 1033,3 hPa 0,0 l/m 13,6 km/h (3 Bft) NO 55 0 min 0,025 mm 0,0 UV-I 0 W/m -0,6 C -3,6 C 20,9 km/h (4 Bft) 100,00 %
14.02.2017 19:02 2,1 C 82 % 1033,3 hPa 0,0 l/m 15,5 km/h (3 Bft) O-NO 65 0 min 0,000 mm 0,0 UV-I 0 W/m -0,6 C -4,7 C 25,7 km/h (4 Bft) 97,56 %
14.02.2017 19:04 2,2 C 82 % 1033,3 hPa 0,0 l/m 15,0 km/h (3 Bft) O-NO 72 0 min 0,000 mm 0,0 UV-I 0 W/m -0,5 C -4,3 C 20,9 km/h (4 Bft) 96,23 %
14.02.2017 19:06 2,2 C 82 % 1033,3 hPa 0,0 l/m 15,5 km/h (3 Bft) O-NO 67 0 min 0,000 mm 0,0 UV-I 0 W/m -0,5 C -4,6 C 20,9 km/h (4 Bft) 94,29 %
14.02.2017 19:08 2,2 C 82 % 1033,4 hPa 0,0 l/m 15,8 km/h (3 Bft) O 80 0 min 0,000 mm 0,0 UV-I 0 W/m -0,5 C -4,8 C 22,5 km/h (4 Bft) 98,11 %
14.02.2017 19:10 2,2 C 82 % 1033,4 hPa 0,0 l/m 16,4 km/h (3 Bft) O 82 0 min 0,000 mm 0,0 UV-I 0 W/m -0,5 C -5,1 C 22,5 km/h (4 Bft) 92,11 %
14.02.2017 19:12 2,2 C 82 % 1033,4 hPa 0,0 l/m 14,9 km/h (3 Bft) O 80 0 min 0,000 mm 0,0 UV-I 0 W/m -0,5 C -4,3 C 24,1 km/h (4 Bft) 96,77 %
14.02.2017 19:14 2,2 C 82 % 1033,4 hPa 0,0 l/m 17,6 km/h (3 Bft) O 80 0 min 0,000 mm 0,0 UV-I 0 W/m -0,5 C -5,7 C 27,4 km/h (4 Bft) 95,12 %
14.02.2017 19:16 2,2 C 82 % 1033,4 hPa 0,0 l/m 16,8 km/h (3 Bft) O 82 0 min 0,000 mm 0,0 UV-I 0 W/m -0,5 C -5,3 C 22,5 km/h (4 Bft) 95,12 %
14.02.2017 19:18 2,2 C 82 % 1033,4 hPa 0,0 l/m 17,8 km/h (3 Bft) O-NO 74 0 min 0,000 mm 0,0 UV-I 0 W/m -0,5 C -5,8 C 24,1 km/h (4 Bft) 96,00 %
14.02.2017 19:20 2,2 C 82 % 1033,4 hPa 0,0 l/m 19,0 km/h (3 Bft) O 84 0 min 0,000 mm 0,0 UV-I 0 W/m -0,5 C -6,3 C 25,7 km/h (4 Bft) 97,87 %
14.02.2017 19:22 2,3 C 82 % 1033,4 hPa 0,0 l/m 19,7 km/h (3 Bft) NO 55 0 min 0,000 mm 0,0 UV-I 0 W/m -0,4 C -6,5 C 27,4 km/h (4 Bft) 92,45 %
14.02.2017 19:24 2,3 C 82 % 1033,4 hPa 0,0 l/m 18,7 km/h (3 Bft) O 81 0 min 0,000 mm 0,0 UV-I 0 W/m -0,4 C -6,1 C 25,7 km/h (4 Bft) 87,80 %
14.02.2017 19:26 2,3 C 82 % 1033,4 hPa 0,0 l/m 18,6 km/h (3 Bft) O-NO 75 0 min 0,000 mm 0,0 UV-I 0 W/m -0,4 C -6,0 C 22,5 km/h (4 Bft) 95,24 %
14.02.2017 19:28 2,3 C 81 % 1033,4 hPa 0,0 l/m 20,6 km/h (4 Bft) O 82 0 min 0,000 mm 0,0 UV-I 0 W/m -0,6 C -6,9 C 30,6 km/h (5 Bft) 94,23 %
14.02.2017 19:30 2,3 C 81 % 1033,4 hPa 0,0 l/m 20,4 km/h (4 Bft) O 82 0 min 0,000 mm 0,0 UV-I 0 W/m -0,6 C -6,8 C 30,6 km/h (5 Bft) 97,62 %
14.02.2017 19:32 2,3 C 81 % 1033,4 hPa 0,0 l/m 22,4 km/h (4 Bft) O 100 0 min 0,000 mm 0,0 UV-I 0 W/m -0,6 C -7,6 C 30,6 km/h (5 Bft) 96,23 %
14.02.2017 19:34 2,4 C 81 % 1033,5 hPa 0,0 l/m 21,9 km/h (4 Bft) O 80 0 min 0,000 mm 0,0 UV-I 0 W/m -0,5 C -7,3 C 29,0 km/h (5 Bft) 96,00 %
14.02.2017 19:36 2,4 C 81 % 1033,5 hPa 0,0 l/m 20,1 km/h (4 Bft) O 80 0 min 0,000 mm 0,0 UV-I 0 W/m -0,5 C -6,6 C 25,7 km/h (4 Bft) 90,91 %
14.02.2017 19:38 2,4 C 81 % 1033,4 hPa 0,0 l/m 20,9 km/h (4 Bft) O 87 0 min 0,000 mm 0,0 UV-I 0 W/m -0,5 C -6,9 C 27,4 km/h (4 Bft) 92,11 %
14.02.2017 19:40 2,4 C 81 % 1033,5 hPa 0,0 l/m 24,0 km/h (4 Bft) O 99 0 min 0,000 mm 0,0 UV-I 0 W/m -0,5 C -8,1 C 32,2 km/h (5 Bft) 95,45 %
14.02.2017 19:42 2,4 C 81 % 1033,6 hPa 0,0 l/m 22,5 km/h (4 Bft) NO 54 0 min 0,000 mm 0,0 UV-I 0 W/m -0,5 C -7,6 C 30,6 km/h (5 Bft) 98,31 %
14.02.2017 19:44 2,4 C 81 % 1033,4 hPa 0,0 l/m 23,6 km/h (4 Bft) O-NO 60 0 min 0,000 mm 0,0 UV-I 0 W/m -0,5 C -8,0 C 29,0 km/h (5 Bft) 94,00 %
14.02.2017 19:46 2,5 C 81 % 1033,5 hPa 0,0 l/m 20,8 km/h (4 Bft) O-NO 78 0 min 0,000 mm 0,0 UV-I 0 W/m -0,4 C -6,7 C 30,6 km/h (5 Bft) 91,49 %
14.02.2017 19:48 2,5 C 81 % 1033,6 hPa 0,0 l/m 24,0 km/h (4 Bft) O-NO 74 0 min 0,000 mm 0,0 UV-I 0 W/m -0,4 C -8,0 C 30,6 km/h (5 Bft) 91,49 %
14.02.2017 19:50 2,5 C 81 % 1033,6 hPa 0,0 l/m 24,6 km/h (4 Bft) O-NO 73 0 min 0,000 mm 0,0 UV-I 0 W/m -0,4 C -8,2 C 41,8 km/h (6 Bft) 95,12 %
14.02.2017 19:52 2,5 C 81 % 1033,6 hPa 0,0 l/m 24,4 km/h (4 Bft) O-NO 74 0 min 0,000 mm 0,0 UV-I 0 W/m -0,4 C -8,1 C 37,0 km/h (5 Bft) 92,45 %
14.02.2017 19:54 2,5 C 81 % 1033,6 hPa 0,0 l/m 21,6 km/h (4 Bft) O-NO 78 0 min 0,000 mm 0,0 UV-I 0 W/m -0,4 C -7,1 C 30,6 km/h (5 Bft) 89,47 %
14.02.2017 19:56 2,5 C 81 % 1033,6 hPa 0,0 l/m 18,8 km/h (3 Bft) O-NO 67 0 min 0,000 mm 0,0 UV-I 0 W/m -0,4 C -5,9 C 30,6 km/h (5 Bft) 96,00 %
14.02.2017 19:58 2,4 C 81 % 1033,6 hPa 0,0 l/m 26,2 km/h (4 Bft) O-NO 78 0 min 0,000 mm 0,0 UV-I 0 W/m -0,5 C -8,9 C 37,0 km/h (5 Bft) 93,18 %
14.02.2017 20:00 2,5 C 81 % 1033,5 hPa 0,0 l/m 23,5 km/h (4 Bft) O 96 0 min 0,026 mm 0,0 UV-I 0 W/m -0,4 C -7,8 C 32,2 km/h (5 Bft) 92,00 %
14.02.2017 20:02 2,5 C 81 % 1033,5 hPa 0,0 l/m 26,1 km/h (4 Bft) O-NO 67 0 min 0,000 mm 0,0 UV-I 0 W/m -0,4 C -8,7 C 35,4 km/h (5 Bft) 92,68 %
14.02.2017 20:04 2,4 C 81 % 1033,6 hPa 0,0 l/m 24,2 km/h (4 Bft) O 88 0 min 0,000 mm 0,0 UV-I 0 W/m -0,5 C -8,2 C 37,0 km/h (5 Bft) 94,64 %
14.02.2017 20:06 2,4 C 81 % 1033,5 hPa 0,0 l/m 22,1 km/h (4 Bft) NO 40 0 min 0,000 mm 0,0 UV-I 0 W/m -0,5 C -7,4 C 29,0 km/h (5 Bft) 87,80 %
14.02.2017 20:08 2,4 C 81 % 1033,5 hPa 0,0 l/m 27,4 km/h (4 Bft) O 90 0 min 0,000 mm 0,0 UV-I 0 W/m -0,5 C -9,3 C 41,8 km/h (6 Bft) 88,00 %
14.02.2017 20:10 2,4 C 81 % 1033,5 hPa 0,0 l/m 26,0 km/h (4 Bft) O 90 0 min 0,000 mm 0,0 UV-I 0 W/m -0,5 C -8,8 C 32,2 km/h (5 Bft) 92,31 %
14.02.2017 20:12 2,4 C 81 % 1033,5 hPa 0,0 l/m 22,9 km/h (4 Bft) O-NO 61 0 min 0,000 mm 0,0 UV-I 0 W/m -0,5 C -7,7 C 32,2 km/h (5 Bft) 94,92 %
14.02.2017 20:14 2,4 C 81 % 1033,5 hPa 0,0 l/m 24,0 km/h (4 Bft) O-NO 67 0 min 0,000 mm 0,0 UV-I 0 W/m -0,5 C -8,1 C 29,0 km/h (5 Bft) 95,24 %
14.02.2017 20:16 2,3 C 81 % 1033,5 hPa 0,0 l/m 23,8 km/h (4 Bft) NO 50 0 min 0,000 mm 0,0 UV-I 0 W/m -0,6 C -8,2 C 33,8 km/h (5 Bft) 86,00 %
14.02.2017 20:18 2,3 C 81 % 1033,6 hPa 0,0 l/m 22,5 km/h (4 Bft) O-NO 69 0 min 0,000 mm 0,0 UV-I 0 W/m -0,6 C -7,7 C 32,2 km/h (5 Bft) 96,00 %
14.02.2017 20:20 2,3 C 81 % 1033,6 hPa 0,0 l/m 22,7 km/h (4 Bft) O-NO 78 0 min 0,000 mm 0,0 UV-I 0 W/m -0,6 C -7,8 C 37,0 km/h (5 Bft) 92,11 %
14.02.2017 20:22 2,3 C 81 % 1033,5 hPa 0,0 l/m 21,5 km/h (4 Bft) O-NO 71 0 min 0,000 mm 0,0 UV-I 0 W/m -0,6 C -7,3 C 30,6 km/h (5 Bft) 85,11 %
14.02.2017 20:24 2,3 C 82 % 1033,6 hPa 0,0 l/m 20,4 km/h (4 Bft) O 82 0 min 0,000 mm 0,0 UV-I 0 W/m -0,4 C -6,8 C 27,4 km/h (4 Bft) 92,00 %
14.02.2017 20:26 2,2 C 82 % 1033,6 hPa 0,0 l/m 22,1 km/h (4 Bft) O-NO 76 0 min 0,000 mm 0,0 UV-I 0 W/m -0,5 C -7,7 C 30,6 km/h (5 Bft) 94,00 %
14.02.2017 20:28 2,2 C 82 % 1033,6 hPa 0,0 l/m 23,2 km/h (4 Bft) O 81 0 min 0,000 mm 0,0 UV-I 0 W/m -0,5 C -8,1 C 35,4 km/h (5 Bft) 100,00 %
14.02.2017 20:30 2,2 C 82 % 1033,6 hPa 0,0 l/m 20,0 km/h (4 Bft) NO 55 0 min 0,000 mm 0,0 UV-I 0 W/m -0,5 C -6,8 C 27,4 km/h (4 Bft) 90,24 %
14.02.2017 20:32 2,2 C 82 % 1033,6 hPa 0,0 l/m 22,1 km/h (4 Bft) O-NO 67 0 min 0,000 mm 0,0 UV-I 0 W/m -0,5 C -7,7 C 27,4 km/h (4 Bft) 92,00 %
14.02.2017 20:34 2,2 C 82 % 1033,6 hPa 0,0 l/m 22,2 km/h (4 Bft) O 79 0 min 0,000 mm 0,0 UV-I 0 W/m -0,5 C -7,7 C 30,6 km/h (5 Bft) 97,87 %
14.02.2017 20:36 2,1 C 82 % 1033,7 hPa 0,0 l/m 16,3 km/h (3 Bft) O-NO 71 0 min 0,000 mm 0,0 UV-I 0 W/m -0,6 C -5,1 C 27,4 km/h (4 Bft) 95,74 %
14.02.2017 20:38 2,1 C 82 % 1033,7 hPa 0,0 l/m 19,1 km/h (3 Bft) O 91 0 min 0,000 mm 0,0 UV-I 0 W/m -0,6 C -6,5 C 29,0 km/h (5 Bft) 96,23 %
14.02.2017 20:40 2,1 C 82 % 1033,7 hPa 0,0 l/m 19,1 km/h (3 Bft) O-NO 74 0 min 0,000 mm 0,0 UV-I 0 W/m -0,6 C -6,5 C 27,4 km/h (4 Bft) 97,73 %
14.02.2017 20:42 2,0 C 82 % 1033,6 hPa 0,0 l/m 19,8 km/h (3 Bft) O-SO 114 0 min 0,000 mm 0,0 UV-I 0 W/m -0,7 C -7,0 C 25,7 km/h (4 Bft) 95,45 %
14.02.2017 20:44 2,0 C 83 % 1033,7 hPa 0,0 l/m 17,1 km/h (3 Bft) O 82 0 min 0,000 mm 0,0 UV-I 0 W/m -0,6 C -5,7 C 22,5 km/h (4 Bft) 98,11 %
14.02.2017 20:46 1,9 C 83 % 1033,7 hPa 0,0 l/m 19,3 km/h (3 Bft) O-NO 72 0 min 0,000 mm 0,0 UV-I 0 W/m -0,7 C -6,9 C 27,4 km/h (4 Bft) 97,83 %
14.02.2017 20:48 1,9 C 83 % 1033,7 hPa 0,0 l/m 22,2 km/h (4 Bft) O 80 0 min 0,000 mm 0,0 UV-I 0 W/m -0,7 C -8,1 C 38,6 km/h (5 Bft) 97,87 %
14.02.2017 20:50 1,9 C 83 % 1033,6 hPa 0,0 l/m 18,6 km/h (3 Bft) O-SO 107 0 min 0,000 mm 0,0 UV-I 0 W/m -0,7 C -6,5 C 24,1 km/h (4 Bft) 92,86 %
14.02.2017 20:52 1,9 C 83 % 1033,7 hPa 0,0 l/m 19,8 km/h (3 Bft) O-NO 63 0 min 0,000 mm 0,0 UV-I 0 W/m -0,7 C -7,1 C 32,2 km/h (5 Bft) 90,00 %
14.02.2017 20:54 1,9 C 83 % 1033,7 hPa 0,0 l/m 22,8 km/h (4 Bft) O 84 0 min 0,000 mm 0,0 UV-I 0 W/m -0,7 C -8,3 C 32,2 km/h (5 Bft) 96,23 %
14.02.2017 20:56 1,9 C 83 % 1033,7 hPa 0,0 l/m 23,4 km/h (4 Bft) O-NO 63 0 min 0,000 mm 0,0 UV-I 0 W/m -0,7 C -8,6 C 30,6 km/h (5 Bft) 97,37 %
14.02.2017 20:58 1,9 C 83 % 1033,7 hPa 0,0 l/m 22,8 km/h (4 Bft) O 86 0 min 0,000 mm 0,0 UV-I 0 W/m -0,7 C -8,3 C 35,4 km/h (5 Bft) 97,56 %
14.02.2017 21:00 1,9 C 83 % 1033,7 hPa 0,0 l/m 19,0 km/h (3 Bft) O-NO 76 0 min 0,025 mm 0,0 UV-I 0 W/m -0,7 C -6,7 C 29,0 km/h (5 Bft) 98,39 %
14.02.2017 21:02 1,8 C 83 % 1033,7 hPa 0,0 l/m 24,6 km/h (4 Bft) O 94 0 min 0,000 mm 0,0 UV-I 0 W/m -0,8 C -9,1 C 35,4 km/h (5 Bft) 91,49 %
14.02.2017 21:04 1,8 C 83 % 1033,7 hPa 0,0 l/m 21,4 km/h (4 Bft) O 96 0 min 0,000 mm 0,0 UV-I 0 W/m -0,8 C -7,9 C 32,2 km/h (5 Bft) 97,37 %
14.02.2017 21:06 1,8 C 83 % 1033,7 hPa 0,0 l/m 21,9 km/h (4 Bft) O-NO 66 0 min 0,000 mm 0,0 UV-I 0 W/m -0,8 C -8,1 C 35,4 km/h (5 Bft) 94,29 %
14.02.2017 21:08 1,8 C 84 % 1033,6 hPa 0,0 l/m 24,3 km/h (4 Bft) NO 53 0 min 0,000 mm 0,0 UV-I 0 W/m -0,6 C -9,0 C 32,2 km/h (5 Bft) 98,46 %
14.02.2017 21:10 1,9 C 84 % 1033,6 hPa 0,0 l/m 24,5 km/h (4 Bft) NO 50 0 min 0,000 mm 0,0 UV-I 0 W/m -0,5 C -9,0 C 30,6 km/h (5 Bft) 94,29 %
14.02.2017 21:12 1,9 C 84 % 1033,6 hPa 0,0 l/m 24,1 km/h (4 Bft) O 79 0 min 0,000 mm 0,0 UV-I 0 W/m -0,5 C -8,8 C 35,4 km/h (5 Bft) 96,43 %
14.02.2017 21:14 1,9 C 84 % 1033,7 hPa 0,0 l/m 22,1 km/h (4 Bft) O 82 0 min 0,000 mm 0,0 UV-I 0 W/m -0,5 C -8,1 C 29,0 km/h (5 Bft) 100,00 %
14.02.2017 21:16 1,9 C 84 % 1033,6 hPa 0,0 l/m 20,7 km/h (4 Bft) O 98 0 min 0,000 mm 0,0 UV-I 0 W/m -0,5 C -7,5 C 29,0 km/h (5 Bft) 100,00 %
14.02.2017 21:18 1,8 C 84 % 1033,6 hPa 0,0 l/m 22,4 km/h (4 Bft) O 84 0 min 0,000 mm 0,0 UV-I 0 W/m -0,6 C -8,3 C 33,8 km/h (5 Bft) 97,87 %
14.02.2017 21:20 1,8 C 84 % 1033,6 hPa 0,0 l/m 22,0 km/h (4 Bft) O-NO 69 0 min 0,000 mm 0,0 UV-I 0 W/m -0,6 C -8,1 C 30,6 km/h (5 Bft) 98,00 %
14.02.2017 21:22 1,8 C 84 % 1033,6 hPa 0,0 l/m 23,3 km/h (4 Bft) O 98 0 min 0,000 mm 0,0 UV-I 0 W/m -0,6 C -8,7 C 33,8 km/h (5 Bft) 98,11 %
14.02.2017 21:24 1,8 C 84 % 1033,6 hPa 0,0 l/m 21,4 km/h (4 Bft) O 82 0 min 0,000 mm 0,0 UV-I 0 W/m -0,6 C -7,9 C 27,4 km/h (4 Bft) 97,73 %
14.02.2017 21:26 1,8 C 84 % 1033,7 hPa 0,0 l/m 20,7 km/h (4 Bft) O-NO 68 0 min 0,000 mm 0,0 UV-I 0 W/m -0,6 C -7,6 C 30,6 km/h (5 Bft) 97,56 %
14.02.2017 21:28 1,8 C 84 % 1033,7 hPa 0,0 l/m 20,5 km/h (4 Bft) O-NO 71 0 min 0,000 mm 0,0 UV-I 0 W/m -0,6 C -7,5 C 30,6 km/h (5 Bft) 96,23 %
14.02.2017 21:30 1,8 C 84 % 1033,7 hPa 0,0 l/m 23,4 km/h (4 Bft) NO 55 0 min 0,000 mm 0,0 UV-I 0 W/m -0,6 C -8,7 C 29,0 km/h (5 Bft) 97,87 %
14.02.2017 21:32 1,7 C 84 % 1033,7 hPa 0,0 l/m 20,1 km/h (4 Bft) O-NO 69 0 min 0,000 mm 0,0 UV-I 0 W/m -0,7 C -7,5 C 27,4 km/h (4 Bft) 100,00 %
14.02.2017 21:34 1,7 C 85 % 1033,7 hPa 0,0 l/m 18,3 km/h (3 Bft) O-NO 74 0 min 0,000 mm 0,0 UV-I 0 W/m -0,5 C -6,7 C 27,4 km/h (4 Bft) 98,00 %
14.02.2017 21:36 1,7 C 85 % 1033,7 hPa 0,0 l/m 23,4 km/h (4 Bft) O 82 0 min 0,000 mm 0,0 UV-I 0 W/m -0,5 C -8,8 C 32,2 km/h (5 Bft) 100,00 %
14.02.2017 21:38 1,7 C 85 % 1033,7 hPa 0,0 l/m 18,7 km/h (3 Bft) O-NO 71 0 min 0,000 mm 0,0 UV-I 0 W/m -0,5 C -6,8 C 25,7 km/h (4 Bft) 98,11 %
14.02.2017 21:40 1,7 C 85 % 1033,7 hPa 0,0 l/m 18,7 km/h (3 Bft) O-SO 105 0 min 0,000 mm 0,0 UV-I 0 W/m -0,5 C -6,8 C 29,0 km/h (5 Bft) 98,00 %
14.02.2017 21:42 1,6 C 85 % 1033,7 hPa 0,0 l/m 21,7 km/h (4 Bft) O-NO 71 0 min 0,000 mm 0,0 UV-I 0 W/m -0,6 C -8,3 C 30,6 km/h (5 Bft) 100,00 %
14.02.2017 21:44 1,6 C 85 % 1033,6 hPa 0,0 l/m 21,0 km/h (4 Bft) O-NO 70 0 min 0,000 mm 0,0 UV-I 0 W/m -0,6 C -8,0 C 27,4 km/h (4 Bft) 96,43 %
14.02.2017 21:46 1,6 C 85 % 1033,6 hPa 0,0 l/m 21,9 km/h (4 Bft) O-NO 73 0 min 0,000 mm 0,0 UV-I 0 W/m -0,6 C -8,4 C 29,0 km/h (5 Bft) 100,00 %
14.02.2017 21:48 1,6 C 85 % 1033,7 hPa 0,0 l/m 21,5 km/h (4 Bft) O-NO 70 0 min 0,000 mm 0,0 UV-I 0 W/m -0,6 C -8,2 C 27,4 km/h (4 Bft) 98,00 %
14.02.2017 21:50 1,6 C 85 % 1033,7 hPa 0,0 l/m 22,0 km/h (4 Bft) O-NO 75 0 min 0,000 mm 0,0 UV-I 0 W/m -0,6 C -8,4 C 27,4 km/h (4 Bft) 92,68 %
14.02.2017 21:52 1,6 C 85 % 1033,7 hPa 0,0 l/m 20,8 km/h (4 Bft) O 85 0 min 0,000 mm 0,0 UV-I 0 W/m -0,6 C -7,9 C 30,6 km/h (5 Bft) 98,11 %
14.02.2017 21:54 1,5 C 85 % 1033,7 hPa 0,0 l/m 19,8 km/h (3 Bft) O 86 0 min 0,000 mm 0,0 UV-I 0 W/m -0,7 C -7,6 C 27,4 km/h (4 Bft) 95,12 %
14.02.2017 21:56 1,5 C 85 % 1033,7 hPa 0,0 l/m 18,5 km/h (3 Bft) O 88 0 min 0,000 mm 0,0 UV-I 0 W/m -0,7 C -7,0 C 29,0 km/h (5 Bft) 97,56 %
14.02.2017 21:58 1,5 C 86 % 1033,7 hPa 0,0 l/m 20,5 km/h (4 Bft) O 83 0 min 0,000 mm 0,0 UV-I 0 W/m -0,6 C -7,9 C 27,4 km/h (4 Bft) 93,62 %
14.02.2017 22:00 1,5 C 86 % 1033,8 hPa 0,0 l/m 19,4 km/h (3 Bft) O-NO 75 0 min 0,025 mm 0,0 UV-I 0 W/m -0,6 C -7,4 C 25,7 km/h (4 Bft) 95,74 %
14.02.2017 22:02 1,4 C 86 % 1033,8 hPa 0,0 l/m 16,9 km/h (3 Bft) O-NO 67 0 min 0,000 mm 0,0 UV-I 0 W/m -0,7 C -6,3 C 22,5 km/h (4 Bft) 88,68 %
14.02.2017 22:04 1,4 C 86 % 1033,8 hPa 0,0 l/m 16,5 km/h (3 Bft) O-NO 70 0 min 0,000 mm 0,0 UV-I 0 W/m -0,7 C -6,1 C 25,7 km/h (4 Bft) 95,12 %
14.02.2017 22:06 1,4 C 86 % 1033,8 hPa 0,0 l/m 19,0 km/h (3 Bft) O-NO 68 0 min 0,000 mm 0,0 UV-I 0 W/m -0,7 C -7,4 C 25,7 km/h (4 Bft) 97,62 %
14.02.2017 22:08 1,4 C 86 % 1033,9 hPa 0,0 l/m 19,4 km/h (3 Bft) O-SO 103 0 min 0,000 mm 0,0 UV-I 0 W/m -0,7 C -7,6 C 25,7 km/h (4 Bft) 92,73 %
14.02.2017 22:10 1,4 C 86 % 1033,8 hPa 0,0 l/m 19,9 km/h (4 Bft) O-NO 59 0 min 0,000 mm 0,0 UV-I 0 W/m -0,7 C -7,8 C 30,6 km/h (5 Bft) 95,24 %
14.02.2017 22:12 1,4 C 86 % 1033,8 hPa 0,0 l/m 21,8 km/h (4 Bft) O 80 0 min 0,000 mm 0,0 UV-I 0 W/m -0,7 C -8,6 C 25,7 km/h (4 Bft) 96,55 %
14.02.2017 22:14 1,4 C 86 % 1033,8 hPa 0,0 l/m 15,6 km/h (3 Bft) O-NO 74 0 min 0,000 mm 0,0 UV-I 0 W/m -0,7 C -5,6 C 22,5 km/h (4 Bft) 95,83 %
14.02.2017 22:16 1,4 C 86 % 1033,8 hPa 0,0 l/m 18,5 km/h (3 Bft) O-NO 71 0 min 0,000 mm 0,0 UV-I 0 W/m -0,7 C -7,1 C 29,0 km/h (5 Bft) 97,37 %
14.02.2017 22:18 1,3 C 86 % 1033,7 hPa 0,0 l/m 16,5 km/h (3 Bft) O-NO 73 0 min 0,000 mm 0,0 UV-I 0 W/m -0,8 C -6,2 C 22,5 km/h (4 Bft) 98,00 %
14.02.2017 22:20 1,3 C 86 % 1033,7 hPa 0,0 l/m 16,7 km/h (3 Bft) O-NO 61 0 min 0,000 mm 0,0 UV-I 0 W/m -0,8 C -6,3 C 27,4 km/h (4 Bft) 96,00 %
14.02.2017 22:22 1,3 C 86 % 1033,7 hPa 0,0 l/m 20,5 km/h (4 Bft) O 82 0 min 0,000 mm 0,0 UV-I 0 W/m -0,8 C -8,2 C 27,4 km/h (4 Bft) 94,00 %
14.02.2017 22:24 1,3 C 86 % 1033,7 hPa 0,0 l/m 18,0 km/h (3 Bft) O 83 0 min 0,000 mm 0,0 UV-I 0 W/m -0,8 C -7,0 C 24,1 km/h (4 Bft) 100,00 %
14.02.2017 22:26 1,3 C 86 % 1033,7 hPa 0,0 l/m 17,0 km/h (3 Bft) O 89 0 min 0,000 mm 0,0 UV-I 0 W/m -0,8 C -6,5 C 24,1 km/h (4 Bft) 94,00 %
14.02.2017 22:28 1,2 C 86 % 1033,7 hPa 0,0 l/m 16,9 km/h (3 Bft) O 80 0 min 0,000 mm 0,0 UV-I 0 W/m -0,9 C -6,6 C 22,5 km/h (4 Bft) 96,00 %
14.02.2017 22:30 1,3 C 87 % 1033,8 hPa 0,0 l/m 17,6 km/h (3 Bft) O 80 0 min 0,000 mm 0,0 UV-I 0 W/m -0,6 C -6,8 C 24,1 km/h (4 Bft) 94,29 %
14.02.2017 22:32 1,2 C 87 % 1033,8 hPa 0,0 l/m 16,9 km/h (3 Bft) O-NO 76 0 min 0,000 mm 0,0 UV-I 0 W/m -0,7 C -6,6 C 22,5 km/h (4 Bft) 97,87 %
14.02.2017 22:34 1,2 C 87 % 1033,8 hPa 0,0 l/m 18,0 km/h (3 Bft) O-NO 62 0 min 0,000 mm 0,0 UV-I 0 W/m -0,7 C -7,1 C 30,6 km/h (5 Bft) 98,11 %
14.02.2017 22:36 1,2 C 87 % 1033,8 hPa 0,0 l/m 20,2 km/h (4 Bft) NO 53 0 min 0,000 mm 0,0 UV-I 0 W/m -0,7 C -8,2 C 25,7 km/h (4 Bft) 100,00 %
14.02.2017 22:38 1,2 C 87 % 1033,9 hPa 0,0 l/m 18,5 km/h (3 Bft) O-NO 76 0 min 0,000 mm 0,0 UV-I 0 W/m -0,7 C -7,4 C 24,1 km/h (4 Bft) 94,64 %
14.02.2017 22:40 1,2 C 87 % 1033,9 hPa 0,0 l/m 15,0 km/h (3 Bft) O-NO 69 0 min 0,000 mm 0,0 UV-I 0 W/m -0,7 C -5,5 C 22,5 km/h (4 Bft) 94,74 %
14.02.2017 22:42 1,2 C 87 % 1033,9 hPa 0,0 l/m 16,9 km/h (3 Bft) O 98 0 min 0,000 mm 0,0 UV-I 0 W/m -0,7 C -6,6 C 24,1 km/h (4 Bft) 96,43 %
14.02.2017 22:44 1,2 C 87 % 1033,9 hPa 0,0 l/m 14,0 km/h (3 Bft) O 81 0 min 0,000 mm 0,0 UV-I 0 W/m -0,7 C -4,9 C 22,5 km/h (4 Bft) 95,74 %
14.02.2017 22:46 1,2 C 87 % 1033,9 hPa 0,0 l/m 16,2 km/h (3 Bft) O 82 0 min 0,000 mm 0,0 UV-I 0 W/m -0,7 C -6,2 C 24,1 km/h (4 Bft) 100,00 %
14.02.2017 22:48 1,2 C 87 % 1033,9 hPa 0,0 l/m 12,8 km/h (3 Bft) O-NO 59 0 min 0,000 mm 0,0 UV-I 0 W/m -0,7 C -4,2 C 19,3 km/h (3 Bft) 98,00 %
14.02.2017 22:50 1,2 C 87 % 1033,9 hPa 0,0 l/m 11,3 km/h (2 Bft) O 92 0 min 0,000 mm 0,0 UV-I 0 W/m -0,7 C -3,1 C 16,1 km/h (3 Bft) 96,00 %
14.02.2017 22:52 1,1 C 87 % 1033,9 hPa 0,0 l/m 12,1 km/h (2 Bft) O-NO 63 0 min 0,000 mm 0,0 UV-I 0 W/m -0,8 C -3,8 C 17,7 km/h (3 Bft) 97,44 %
14.02.2017 22:54 1,1 C 87 % 1033,9 hPa 0,0 l/m 10,8 km/h (2 Bft) O 82 0 min 0,000 mm 0,0 UV-I 0 W/m -0,8 C -2,9 C 14,5 km/h (3 Bft) 96,23 %
14.02.2017 22:56 1,0 C 87 % 1033,9 hPa 0,0 l/m 8,9 km/h (2 Bft) O-NO 74 0 min 0,000 mm 0,0 UV-I 0 W/m -0,9 C -1,4 C 12,9 km/h (3 Bft) 97,56 %
14.02.2017 22:58 1,0 C 87 % 1033,8 hPa 0,0 l/m 11,3 km/h (2 Bft) O-NO 77 0 min 0,000 mm 0,0 UV-I 0 W/m -0,9 C -3,3 C 17,7 km/h (3 Bft) 92,00 %
14.02.2017 23:00 0,9 C 87 % 1033,9 hPa 0,0 l/m 11,0 km/h (2 Bft) O 79 0 min 0,000 mm 0,0 UV-I 0 W/m -1,0 C -3,2 C 14,5 km/h (3 Bft) 97,96 %
14.02.2017 23:02 0,9 C 87 % 1033,9 hPa 0,0 l/m 9,8 km/h (2 Bft) O 83 0 min 0,026 mm 0,0 UV-I 0 W/m -1,0 C -2,3 C 16,1 km/h (3 Bft) 93,18 %
14.02.2017 23:04 0,9 C 88 % 1033,9 hPa 0,0 l/m 7,2 km/h (2 Bft) O-NO 74 0 min 0,000 mm 0,0 UV-I 0 W/m -0,9 C 0,1 C 11,3 km/h (2 Bft) 96,23 %
14.02.2017 23:06 0,8 C 88 % 1033,9 hPa 0,0 l/m 7,4 km/h (2 Bft) O-NO 64 0 min 0,000 mm 0,0 UV-I 0 W/m -1,0 C -0,2 C 11,3 km/h (2 Bft) 94,74 %
14.02.2017 23:08 0,8 C 88 % 1033,9 hPa 0,0 l/m 8,6 km/h (2 Bft) O-NO 67 0 min 0,000 mm 0,0 UV-I 0 W/m -1,0 C -1,4 C 12,9 km/h (3 Bft) 96,23 %
14.02.2017 23:10 0,8 C 88 % 1033,9 hPa 0,0 l/m 10,2 km/h (2 Bft) O 79 0 min 0,000 mm 0,0 UV-I 0 W/m -1,0 C -2,7 C 12,9 km/h (3 Bft) 94,74 %
14.02.2017 23:12 0,8 C 88 % 1034,0 hPa 0,0 l/m 7,8 km/h (2 Bft) O 94 0 min 0,000 mm 0,0 UV-I 0 W/m -1,0 C -0,6 C 11,3 km/h (2 Bft) 96,23 %
14.02.2017 23:14 0,7 C 88 % 1033,9 hPa 0,0 l/m 7,5 km/h (2 Bft) O-NO 68 0 min 0,000 mm 0,0 UV-I 0 W/m -1,1 C -0,4 C 12,9 km/h (3 Bft) 95,74 %
14.02.2017 23:16 0,7 C 88 % 1033,9 hPa 0,0 l/m 8,2 km/h (2 Bft) O 79 0 min 0,000 mm 0,0 UV-I 0 W/m -1,1 C -1,1 C 12,9 km/h (3 Bft) 95,74 %
14.02.2017 23:18 0,7 C 88 % 1033,9 hPa 0,0 l/m 8,1 km/h (2 Bft) O 87 0 min 0,000 mm 0,0 UV-I 0 W/m -1,1 C -1,0 C 14,5 km/h (3 Bft) 97,87 %
14.02.2017 23:20 0,6 C 88 % 1034,0 hPa 0,0 l/m 6,4 km/h (2 Bft) O-NO 77 0 min 0,000 mm 0,0 UV-I 0 W/m -1,2 C 0,6 C 9,7 km/h (2 Bft) 94,00 %
14.02.2017 23:22 0,6 C 88 % 1034,0 hPa 0,0 l/m 6,9 km/h (2 Bft) O-NO 70 0 min 0,000 mm 0,0 UV-I 0 W/m -1,2 C 0,1 C 12,9 km/h (3 Bft) 100,00 %
14.02.2017 23:24 0,5 C 88 % 1034,0 hPa 0,0 l/m 5,6 km/h (1 Bft) O-NO 62 0 min 0,000 mm 0,0 UV-I 0 W/m -1,3 C 0,5 C 8,0 km/h (2 Bft) 94,00 %
14.02.2017 23:26 0,5 C 89 % 1034,1 hPa 0,0 l/m 5,9 km/h (2 Bft) NO 55 0 min 0,000 mm 0,0 UV-I 0 W/m -1,1 C 0,5 C 9,7 km/h (2 Bft) 97,87 %
14.02.2017 23:28 0,4 C 89 % 1034,1 hPa 0,0 l/m 7,4 km/h (2 Bft) O-NO 71 0 min 0,000 mm 0,0 UV-I 0 W/m -1,2 C -0,6 C 8,0 km/h (2 Bft) 96,23 %
14.02.2017 23:30 0,4 C 89 % 1034,1 hPa 0,0 l/m 7,2 km/h (2 Bft) O-NO 71 0 min 0,000 mm 0,0 UV-I 0 W/m -1,2 C -0,4 C 12,9 km/h (3 Bft) 95,74 %
14.02.2017 23:32 0,3 C 89 % 1034,1 hPa 0,0 l/m 7,6 km/h (2 Bft) O-NO 68 0 min 0,000 mm 0,0 UV-I 0 W/m -1,3 C -0,9 C 12,9 km/h (3 Bft) 97,62 %
14.02.2017 23:34 0,3 C 89 % 1034,1 hPa 0,0 l/m 6,8 km/h (2 Bft) O-NO 65 0 min 0,000 mm 0,0 UV-I 0 W/m -1,3 C -0,1 C 9,7 km/h (2 Bft) 98,11 %
14.02.2017 23:36 0,3 C 89 % 1034,1 hPa 0,0 l/m 6,8 km/h (2 Bft) O 80 0 min 0,000 mm 0,0 UV-I 0 W/m -1,3 C -0,1 C 12,9 km/h (3 Bft) 100,00 %
14.02.2017 23:38 0,3 C 89 % 1034,1 hPa 0,0 l/m 7,7 km/h (2 Bft) O-NO 71 0 min 0,000 mm 0,0 UV-I 0 W/m -1,3 C -1,0 C 12,9 km/h (3 Bft) 98,21 %
14.02.2017 23:40 0,3 C 89 % 1034,0 hPa 0,0 l/m 7,5 km/h (2 Bft) O-NO 69 0 min 0,000 mm 0,0 UV-I 0 W/m -1,3 C -0,8 C 12,9 km/h (3 Bft) 94,29 %
14.02.2017 23:42 0,3 C 89 % 1034,0 hPa 0,0 l/m 6,9 km/h (2 Bft) O-NO 68 0 min 0,000 mm 0,0 UV-I 0 W/m -1,3 C -0,2 C 11,3 km/h (2 Bft) 100,00 %
14.02.2017 23:44 0,3 C 89 % 1034,0 hPa 0,0 l/m 7,8 km/h (2 Bft) O 82 0 min 0,000 mm 0,0 UV-I 0 W/m -1,3 C -1,1 C 12,9 km/h (3 Bft) 97,37 %
14.02.2017 23:46 0,3 C 89 % 1034,0 hPa 0,0 l/m 6,9 km/h (2 Bft) O-NO 63 0 min 0,000 mm 0,0 UV-I 0 W/m -1,3 C -0,2 C 11,3 km/h (2 Bft) 97,87 %
14.02.2017 23:48 0,2 C 89 % 1034,0 hPa 0,0 l/m 9,3 km/h (2 Bft) O-NO 64 0 min 0,000 mm 0,0 UV-I 0 W/m -1,4 C -2,6 C 17,7 km/h (3 Bft) 100,00 %
14.02.2017 23:50 0,2 C 89 % 1034,0 hPa 0,0 l/m 6,7 km/h (2 Bft) NO 53 0 min 0,000 mm 0,0 UV-I 0 W/m -1,4 C -0,1 C 9,7 km/h (2 Bft) 98,00 %
14.02.2017 23:52 0,2 C 89 % 1034,0 hPa 0,0 l/m 6,2 km/h (2 Bft) O-NO 62 0 min 0,000 mm 0,0 UV-I 0 W/m -1,4 C 0,2 C 8,0 km/h (2 Bft) 92,68 %
14.02.2017 23:54 0,1 C 90 % 1034,0 hPa 0,0 l/m 4,8 km/h (1 Bft) O-NO 61 0 min 0,000 mm 0,0 UV-I 0 W/m -1,3 C 0,1 C 6,4 km/h (2 Bft) 98,00 %
14.02.2017 23:56 0,1 C 90 % 1034,0 hPa 0,0 l/m 4,3 km/h (1 Bft) O-NO 60 0 min 0,000 mm 0,0 UV-I 0 W/m -1,3 C 0,1 C 8,0 km/h (2 Bft) 94,00 %
14.02.2017 23:58 0,0 C 89 % 1034,0 hPa 0,0 l/m 5,3 km/h (1 Bft) NO 47 0 min 0,000 mm 0,0 UV-I 0 W/m -1,6 C 0,0 C 8,0 km/h (2 Bft) 100,00 %
_ Min-Zeit 07:32 12:54 00:54 - 23:56 - - - - - - 07:22 06:58 23:54 20:22
Minimum _ -1,7 C 71 % 1028,4 hPa - 4,3 km/h (1 Bft) - - - - - - -3,8 C -15,7 C 6,4 km/h (2 Bft) 85,11 %
_ Max-Zeit 15:12 23:54 23:26 00:00 06:58 - - 16:16 13:00 11:48 11:58 15:02 15:24 06:58 00:10
Maximum _ 4,2 C 90 % 1034,1 hPa 0,0 l/m 30,6 km/h
O-NO (5 Bft)
- - 6 min 0,204 mm 1,4 UV-I 512 W/m -0,1 C 1,5 C 45,1 km/h
O-NO (6 Bft)
100,00 %
Durchschnitt _ 1,0 C 82 % 1031,5 hPa #0,0 l/m 17,4 km/h (3 Bft) O-NO - #9:40 h #1,702 mm 1,0 UV-I 285 W/m -1,9 C -6,9 C 24,5 km/h (4 Bft) 96,48 %